Wetterdaten: Samstag, 09.02.2019
Datum Zeit Temp. Aussen Temp. o. S. +5cm Feuchte Auss Luftdruck Regen Sonnenschein Regendauer Solar Windben Empfang
09.02.2019 00:00 8,3 C 6,1 C 5,6 C 87 % 999,7 hPa 0,0 l/m 0 min 2 min 0 W/m 29,0 km/h (5 Bft) 100,00 %
09.02.2019 00:02 8,3 C 6,1 C 5,6 C 87 % 999,7 hPa 0,0 l/m 0 min 2 min 0 W/m 19,3 km/h (3 Bft) 100,00 %
09.02.2019 00:04 8,2 C 6,1 C 5,6 C 87 % 999,6 hPa 0,0 l/m 0 min 2 min 0 W/m 16,1 km/h (3 Bft) 97,87 %
09.02.2019 00:07 8,2 C 6,1 C 5,6 C 88 % 999,5 hPa 0,0 l/m 0 min 3 min 0 W/m 29,0 km/h (5 Bft) 100,00 %
09.02.2019 00:08 8,2 C 6,1 C 5,6 C 88 % 999,5 hPa 0,0 l/m 0 min 1 min 0 W/m 12,9 km/h (3 Bft) 100,00 %
09.02.2019 00:10 8,2 C 6,1 C 5,6 C 88 % 999,5 hPa 0,0 l/m 0 min 2 min 0 W/m 19,3 km/h (3 Bft) 95,74 %
09.02.2019 00:12 8,2 C 6,1 C 5,6 C 88 % 999,5 hPa 0,0 l/m 0 min 2 min 0 W/m 12,9 km/h (3 Bft) 100,00 %
09.02.2019 00:14 8,1 C 6,1 C 5,6 C 88 % 999,5 hPa 0,0 l/m 0 min 2 min 0 W/m 25,7 km/h (4 Bft) 100,00 %
09.02.2019 00:16 8,1 C 6,1 C 5,6 C 88 % 999,4 hPa 0,0 l/m 0 min 2 min 0 W/m 16,1 km/h (3 Bft) 100,00 %
09.02.2019 00:18 8,1 C 6,1 C 5,6 C 88 % 999,4 hPa 0,0 l/m 0 min 2 min 0 W/m 16,1 km/h (3 Bft) 100,00 %
09.02.2019 00:20 8,1 C 6,1 C 5,6 C 88 % 999,5 hPa 0,0 l/m 0 min 2 min 0 W/m 25,7 km/h (4 Bft) 100,00 %
09.02.2019 00:22 8,1 C 6,1 C 5,6 C 89 % 999,4 hPa 0,0 l/m 0 min 2 min 0 W/m 19,3 km/h (3 Bft) 100,00 %
09.02.2019 00:24 8,0 C 6,1 C 5,6 C 89 % 999,3 hPa 0,0 l/m 0 min 2 min 0 W/m 16,1 km/h (3 Bft) 100,00 %
09.02.2019 00:26 8,0 C 6,1 C 5,6 C 89 % 999,2 hPa 0,2 l/m 0 min 2 min 0 W/m 16,1 km/h (3 Bft) 100,00 %
09.02.2019 00:28 8,0 C 6,1 C 5,6 C 89 % 999,3 hPa 0,0 l/m 0 min 2 min 0 W/m 19,3 km/h (3 Bft) 97,73 %
09.02.2019 00:30 8,0 C 6,1 C 5,6 C 89 % 999,3 hPa 0,0 l/m 0 min 2 min 0 W/m 16,1 km/h (3 Bft) 100,00 %
09.02.2019 00:32 8,0 C 6,1 C 5,6 C 89 % 999,1 hPa 0,0 l/m 0 min 2 min 0 W/m 19,3 km/h (3 Bft) 100,00 %
09.02.2019 00:34 8,0 C 6,1 C 5,6 C 89 % 999,2 hPa 0,0 l/m 0 min 2 min 0 W/m 22,5 km/h (4 Bft) 100,00 %
09.02.2019 00:36 7,9 C 6,1 C 5,6 C 89 % 999,2 hPa 0,0 l/m 0 min 2 min 0 W/m 25,7 km/h (4 Bft) 97,92 %
09.02.2019 00:38 8,0 C 6,1 C 5,6 C 89 % 999,1 hPa 0,0 l/m 0 min 2 min 0 W/m 22,5 km/h (4 Bft) 97,87 %
09.02.2019 00:40 8,0 C 6,1 C 5,6 C 89 % 999,1 hPa 0,2 l/m 0 min 2 min 0 W/m 9,7 km/h (2 Bft) 100,00 %
09.02.2019 00:42 8,0 C 6,1 C 5,6 C 89 % 999,2 hPa 0,0 l/m 0 min 2 min 0 W/m 22,5 km/h (4 Bft) 100,00 %
09.02.2019 00:44 8,0 C 6,1 C 5,6 C 89 % 999,1 hPa 0,0 l/m 0 min 2 min 0 W/m 16,1 km/h (3 Bft) 100,00 %
09.02.2019 00:46 8,0 C 6,1 C 5,6 C 89 % 999,2 hPa 0,0 l/m 0 min 2 min 0 W/m 6,4 km/h (2 Bft) 97,87 %
09.02.2019 00:48 8,0 C 6,1 C 5,6 C 89 % 999,2 hPa 0,0 l/m 0 min 2 min 0 W/m 25,7 km/h (4 Bft) 100,00 %
09.02.2019 00:50 8,0 C 6,1 C 5,6 C 89 % 999,2 hPa 0,2 l/m 0 min 2 min 0 W/m 16,1 km/h (3 Bft) 96,30 %
09.02.2019 00:52 8,0 C 6,1 C 5,6 C 89 % 999,3 hPa 0,0 l/m 0 min 2 min 0 W/m 16,1 km/h (3 Bft) 98,00 %
09.02.2019 00:54 8,0 C 6,1 C 5,6 C 89 % 999,3 hPa 0,2 l/m 0 min 2 min 0 W/m 25,7 km/h (4 Bft) 100,00 %
09.02.2019 00:56 8,0 C 6,1 C 5,6 C 90 % 999,2 hPa 0,0 l/m 0 min 2 min 0 W/m 22,5 km/h (4 Bft) 93,62 %
09.02.2019 00:58 8,0 C 6,1 C 5,6 C 90 % 999,3 hPa 0,0 l/m 0 min 2 min 0 W/m 32,2 km/h (5 Bft) 95,65 %
09.02.2019 01:00 8,0 C 6,1 C 5,6 C 90 % 999,3 hPa 0,2 l/m 0 min 2 min 0 W/m 41,8 km/h (6 Bft) 95,83 %
09.02.2019 01:02 8,0 C 6,1 C 5,6 C 90 % 999,1 hPa 0,2 l/m 0 min 2 min 0 W/m 35,4 km/h (5 Bft) 97,92 %
09.02.2019 01:04 8,0 C 6,1 C 5,6 C 90 % 999,1 hPa 0,0 l/m 0 min 2 min 0 W/m 25,7 km/h (4 Bft) 95,74 %
09.02.2019 01:06 8,0 C 6,1 C 5,6 C 90 % 999,0 hPa 0,0 l/m 0 min 2 min 0 W/m 25,7 km/h (4 Bft) 95,74 %
09.02.2019 01:08 7,9 C 6,1 C 5,6 C 90 % 999,1 hPa 0,0 l/m 0 min 2 min 0 W/m 32,2 km/h (5 Bft) 94,29 %
09.02.2019 01:10 7,9 C 6,1 C 5,6 C 90 % 999,2 hPa 0,2 l/m 0 min 2 min 0 W/m 29,0 km/h (5 Bft) 95,74 %
09.02.2019 01:12 7,9 C 6,1 C 5,6 C 91 % 999,0 hPa 0,0 l/m 0 min 2 min 0 W/m 25,7 km/h (4 Bft) 96,23 %
09.02.2019 01:14 7,9 C 6,1 C 5,6 C 91 % 999,0 hPa 0,2 l/m 0 min 2 min 0 W/m 35,4 km/h (5 Bft) 93,62 %
09.02.2019 01:16 7,9 C 6,1 C 5,6 C 91 % 998,8 hPa 0,0 l/m 0 min 2 min 0 W/m 22,5 km/h (4 Bft) 98,00 %
09.02.2019 01:18 7,9 C 6,1 C 5,6 C 91 % 998,8 hPa 0,0 l/m 0 min 2 min 0 W/m 19,3 km/h (3 Bft) 95,92 %
09.02.2019 01:20 7,9 C 6,1 C 5,6 C 91 % 998,7 hPa 0,0 l/m 0 min 2 min 0 W/m 16,1 km/h (3 Bft) 95,74 %
09.02.2019 01:22 7,9 C 6,1 C 5,6 C 91 % 998,7 hPa 0,0 l/m 0 min 2 min 0 W/m 25,7 km/h (4 Bft) 94,29 %
09.02.2019 01:24 7,9 C 6,1 C 5,6 C 91 % 998,5 hPa 0,0 l/m 0 min 2 min 0 W/m 29,0 km/h (5 Bft) 96,23 %
09.02.2019 01:26 7,8 C 6,1 C 5,6 C 91 % 998,4 hPa 0,0 l/m 0 min 2 min 0 W/m 35,4 km/h (5 Bft) 95,74 %
09.02.2019 01:28 7,8 C 6,1 C 5,6 C 91 % 998,5 hPa 0,0 l/m 0 min 2 min 0 W/m 25,7 km/h (4 Bft) 92,00 %
09.02.2019 01:30 7,8 C 6,1 C 5,6 C 91 % 998,5 hPa 0,0 l/m 0 min 2 min 0 W/m 29,0 km/h (5 Bft) 95,74 %
09.02.2019 01:32 7,8 C 6,1 C 5,6 C 91 % 998,4 hPa 0,0 l/m 0 min 0 min 0 W/m 25,7 km/h (4 Bft) 95,92 %
09.02.2019 01:34 7,8 C 6,1 C 5,6 C 92 % 998,4 hPa 0,0 l/m 0 min 2 min 0 W/m 29,0 km/h (5 Bft) 93,48 %
09.02.2019 01:36 7,8 C 6,7 C 5,6 C 92 % 998,5 hPa 0,0 l/m 0 min 2 min 0 W/m 29,0 km/h (5 Bft) 95,74 %
09.02.2019 01:38 7,7 C 6,7 C 6,1 C 92 % 998,4 hPa 0,0 l/m 0 min 2 min 0 W/m 38,6 km/h (5 Bft) 93,62 %
09.02.2019 01:40 7,7 C 6,1 C 5,6 C 92 % 998,4 hPa 0,0 l/m 0 min 2 min 0 W/m 19,3 km/h (3 Bft) 93,62 %
09.02.2019 01:42 7,7 C 6,1 C 5,6 C 92 % 998,3 hPa 0,0 l/m 0 min 2 min 0 W/m 32,2 km/h (5 Bft) 88,57 %
09.02.2019 01:44 7,7 C 6,1 C 5,6 C 92 % 998,4 hPa 0,0 l/m 0 min 2 min 0 W/m 22,5 km/h (4 Bft) 96,30 %
09.02.2019 01:46 7,7 C 6,1 C 5,6 C 92 % 998,5 hPa 0,2 l/m 0 min 2 min 0 W/m 16,1 km/h (3 Bft) 89,80 %
09.02.2019 01:48 7,7 C 6,1 C 5,6 C 92 % 998,5 hPa 0,0 l/m 0 min 2 min 0 W/m 29,0 km/h (5 Bft) 93,62 %
09.02.2019 01:50 7,7 C 6,1 C 5,6 C 92 % 998,5 hPa 0,0 l/m 0 min 2 min 0 W/m 25,7 km/h (4 Bft) 93,88 %
09.02.2019 01:52 7,7 C 6,1 C 5,6 C 92 % 998,4 hPa 0,0 l/m 0 min 2 min 0 W/m 32,2 km/h (5 Bft) 93,62 %
09.02.2019 01:54 7,7 C 6,1 C 5,6 C 92 % 998,3 hPa 0,0 l/m 0 min 2 min 0 W/m 25,7 km/h (4 Bft) 97,14 %
09.02.2019 01:56 7,7 C 6,1 C 5,6 C 92 % 998,3 hPa 0,0 l/m 0 min 2 min 0 W/m 22,5 km/h (4 Bft) 97,87 %
09.02.2019 01:58 7,7 C 6,1 C 5,6 C 92 % 998,3 hPa 0,0 l/m 0 min 2 min 0 W/m 22,5 km/h (4 Bft) 98,11 %
09.02.2019 02:00 7,7 C 6,1 C 5,6 C 92 % 998,3 hPa 0,0 l/m 0 min 2 min 0 W/m 22,5 km/h (4 Bft) 96,00 %
09.02.2019 02:02 7,7 C 6,1 C 5,6 C 92 % 998,4 hPa 0,0 l/m 0 min 2 min 0 W/m 25,7 km/h (4 Bft) 93,62 %
09.02.2019 02:04 7,7 C 6,1 C 5,6 C 92 % 998,2 hPa 0,0 l/m 0 min 2 min 0 W/m 22,5 km/h (4 Bft) 98,00 %
09.02.2019 02:06 7,7 C 6,1 C 5,6 C 92 % 998,2 hPa 0,0 l/m 0 min 2 min 0 W/m 25,7 km/h (4 Bft) 100,00 %
09.02.2019 02:08 7,7 C 6,1 C 5,6 C 92 % 998,3 hPa 0,0 l/m 0 min 2 min 0 W/m 19,3 km/h (3 Bft) 95,83 %
09.02.2019 02:10 7,7 C 6,1 C 5,6 C 92 % 998,3 hPa 0,0 l/m 0 min 2 min 0 W/m 19,3 km/h (3 Bft) 97,14 %
09.02.2019 02:12 7,7 C 6,1 C 5,6 C 92 % 998,1 hPa 0,0 l/m 0 min 2 min 0 W/m 22,5 km/h (4 Bft) 95,92 %
09.02.2019 02:14 7,7 C 6,1 C 5,6 C 92 % 998,2 hPa 0,0 l/m 0 min 2 min 0 W/m 16,1 km/h (3 Bft) 97,87 %
09.02.2019 02:16 7,7 C 6,1 C 5,6 C 92 % 998,2 hPa 0,0 l/m 0 min 2 min 0 W/m 22,5 km/h (4 Bft) 97,87 %
09.02.2019 02:18 7,7 C 6,1 C 5,6 C 92 % 998,2 hPa 0,0 l/m 0 min 2 min 0 W/m 19,3 km/h (3 Bft) 97,87 %
09.02.2019 02:20 7,7 C 6,1 C 5,6 C 92 % 998,2 hPa 0,0 l/m 0 min 2 min 0 W/m 29,0 km/h (5 Bft) 97,87 %
09.02.2019 02:22 7,7 C 6,1 C 5,6 C 92 % 998,3 hPa 0,0 l/m 0 min 2 min 0 W/m 29,0 km/h (5 Bft) 95,65 %
09.02.2019 02:24 7,7 C 6,1 C 5,6 C 92 % 998,3 hPa 0,0 l/m 0 min 2 min 0 W/m 19,3 km/h (3 Bft) 100,00 %
09.02.2019 02:26 7,7 C 6,1 C 5,6 C 92 % 998,4 hPa 0,0 l/m 0 min 2 min 0 W/m 19,3 km/h (3 Bft) 100,00 %
09.02.2019 02:28 7,7 C 6,1 C 5,6 C 92 % 998,3 hPa 0,0 l/m 0 min 2 min 0 W/m 25,7 km/h (4 Bft) 100,00 %
09.02.2019 02:30 7,6 C 6,1 C 5,6 C 92 % 998,3 hPa 0,0 l/m 0 min 2 min 0 W/m 16,1 km/h (3 Bft) 97,83 %
09.02.2019 02:32 7,7 C 6,1 C 5,6 C 92 % 998,2 hPa 0,0 l/m 0 min 2 min 0 W/m 22,5 km/h (4 Bft) 100,00 %
09.02.2019 02:34 7,7 C 6,7 C 5,6 C 92 % 998,3 hPa 0,0 l/m 0 min 2 min 0 W/m 22,5 km/h (4 Bft) 100,00 %
09.02.2019 02:36 7,7 C 6,7 C 6,1 C 92 % 998,4 hPa 0,0 l/m 0 min 2 min 0 W/m 32,2 km/h (5 Bft) 97,92 %
09.02.2019 02:38 7,7 C 6,7 C 6,1 C 92 % 998,3 hPa 0,0 l/m 0 min 2 min 0 W/m 22,5 km/h (4 Bft) 100,00 %
09.02.2019 02:40 7,7 C 6,7 C 6,1 C 92 % 998,4 hPa 0,0 l/m 0 min 2 min 0 W/m 29,0 km/h (5 Bft) 97,87 %
09.02.2019 02:42 7,8 C 6,7 C 6,1 C 92 % 998,3 hPa 0,0 l/m 0 min 2 min 0 W/m 29,0 km/h (5 Bft) 100,00 %
09.02.2019 02:44 7,8 C 6,7 C 6,1 C 92 % 998,2 hPa 0,0 l/m 0 min 2 min 0 W/m 25,7 km/h (4 Bft) 100,00 %
09.02.2019 02:46 7,8 C 6,7 C 6,1 C 92 % 998,2 hPa 0,0 l/m 0 min 2 min 0 W/m 25,7 km/h (4 Bft) 100,00 %
09.02.2019 02:48 7,9 C 6,7 C 6,1 C 92 % 998,2 hPa 0,0 l/m 0 min 2 min 0 W/m 19,3 km/h (3 Bft) 97,87 %
09.02.2019 02:50 7,9 C 6,7 C 6,1 C 92 % 998,2 hPa 0,0 l/m 0 min 0 min 0 W/m 35,4 km/h (5 Bft) 97,87 %
09.02.2019 02:52 7,9 C 6,7 C 6,1 C 92 % 998,1 hPa 0,0 l/m 0 min 2 min 0 W/m 29,0 km/h (5 Bft) 100,00 %
09.02.2019 02:54 7,9 C 6,7 C 6,1 C 91 % 998,1 hPa 0,0 l/m 0 min 0 min 0 W/m 38,6 km/h (5 Bft) 100,00 %
09.02.2019 02:56 8,0 C 7,2 C 6,1 C 91 % 998,1 hPa 0,0 l/m 0 min 0 min 0 W/m 61,2 km/h (7 Bft) 100,00 %
09.02.2019 02:58 8,1 C 7,2 C 6,1 C 91 % 998,2 hPa 0,0 l/m 0 min 2 min 0 W/m 32,2 km/h (5 Bft) 100,00 %
09.02.2019 03:00 8,1 C 6,7 C 6,1 C 91 % 998,3 hPa 0,0 l/m 0 min 2 min 0 W/m 61,2 km/h (7 Bft) 100,00 %
09.02.2019 03:02 8,2 C 6,7 C 6,1 C 91 % 998,2 hPa 0,0 l/m 0 min 2 min 0 W/m 41,8 km/h (6 Bft) 100,00 %
09.02.2019 03:04 8,2 C 6,7 C 6,1 C 90 % 998,2 hPa 0,0 l/m 0 min 2 min 0 W/m 51,5 km/h (7 Bft) 100,00 %
09.02.2019 03:06 8,2 C 7,2 C 6,1 C 90 % 998,3 hPa 0,0 l/m 0 min 2 min 0 W/m 41,8 km/h (6 Bft) 100,00 %
09.02.2019 03:08 8,2 C 7,2 C 6,1 C 90 % 998,2 hPa 0,0 l/m 0 min 2 min 0 W/m 29,0 km/h (5 Bft) 100,00 %
09.02.2019 03:10 8,2 C 7,2 C 6,1 C 90 % 998,1 hPa 0,0 l/m 0 min 2 min 0 W/m 29,0 km/h (5 Bft) 100,00 %
09.02.2019 03:12 8,2 C 7,2 C 6,1 C 90 % 998,2 hPa 0,0 l/m 0 min 2 min 0 W/m 35,4 km/h (5 Bft) 100,00 %
09.02.2019 03:14 8,2 C 7,2 C 6,1 C 89 % 998,2 hPa 0,0 l/m 0 min 2 min 0 W/m 38,6 km/h (5 Bft) 100,00 %
09.02.2019 03:16 8,3 C 7,2 C 6,1 C 89 % 998,2 hPa 0,0 l/m 0 min 2 min 0 W/m 35,4 km/h (5 Bft) 100,00 %
09.02.2019 03:18 8,3 C 7,2 C 6,1 C 89 % 998,2 hPa 0,0 l/m 0 min 2 min 0 W/m 25,7 km/h (4 Bft) 100,00 %
09.02.2019 03:20 8,3 C 7,8 C 6,1 C 89 % 998,2 hPa 0,0 l/m 0 min 0 min 0 W/m 32,2 km/h (5 Bft) 100,00 %
09.02.2019 03:22 8,3 C 7,8 C 6,1 C 89 % 998,1 hPa 0,0 l/m 0 min 0 min 0 W/m 32,2 km/h (5 Bft) 97,87 %
09.02.2019 03:24 8,3 C 7,8 C 6,1 C 89 % 998,1 hPa 0,0 l/m 0 min 0 min 0 W/m 41,8 km/h (6 Bft) 100,00 %
09.02.2019 03:26 8,3 C 7,8 C 6,1 C 89 % 998,1 hPa 0,0 l/m 0 min 0 min 0 W/m 35,4 km/h (5 Bft) 100,00 %
09.02.2019 03:28 8,3 C 7,8 C 6,1 C 89 % 998,2 hPa 0,0 l/m 0 min 0 min 0 W/m 25,7 km/h (4 Bft) 100,00 %
09.02.2019 03:30 8,3 C 7,8 C 6,1 C 89 % 998,1 hPa 0,0 l/m 0 min 0 min 0 W/m 22,5 km/h (4 Bft) 100,00 %
09.02.2019 03:32 8,3 C 7,8 C 6,1 C 89 % 998,1 hPa 0,0 l/m 0 min 0 min 0 W/m 29,0 km/h (5 Bft) 98,00 %
09.02.2019 03:34 8,3 C 7,8 C 6,1 C 89 % 997,9 hPa 0,0 l/m 0 min 0 min 0 W/m 22,5 km/h (4 Bft) 100,00 %
09.02.2019 03:36 8,2 C 7,8 C 6,7 C 89 % 997,9 hPa 0,0 l/m 0 min 0 min 0 W/m 25,7 km/h (4 Bft) 98,00 %
09.02.2019 03:38 8,2 C 7,8 C 6,7 C 89 % 997,8 hPa 0,0 l/m 0 min 0 min 0 W/m 19,3 km/h (3 Bft) 97,14 %
09.02.2019 03:40 8,2 C 7,2 C 6,7 C 89 % 997,8 hPa 0,0 l/m 0 min 2 min 0 W/m 25,7 km/h (4 Bft) 97,87 %
09.02.2019 03:42 8,2 C 7,8 C 6,7 C 89 % 997,9 hPa 0,0 l/m 0 min 2 min 0 W/m 35,4 km/h (5 Bft) 100,00 %
09.02.2019 03:44 8,2 C 7,8 C 6,7 C 89 % 997,9 hPa 0,0 l/m 0 min 2 min 0 W/m 29,0 km/h (5 Bft) 100,00 %
09.02.2019 03:46 8,2 C 7,8 C 6,7 C 89 % 997,9 hPa 0,0 l/m 0 min 0 min 0 W/m 38,6 km/h (5 Bft) 95,74 %
09.02.2019 03:48 8,2 C 7,8 C 6,7 C 88 % 997,9 hPa 0,0 l/m 0 min 0 min 0 W/m 19,3 km/h (3 Bft) 100,00 %
09.02.2019 03:50 8,2 C 7,8 C 6,7 C 88 % 998,0 hPa 0,0 l/m 0 min 0 min 0 W/m 29,0 km/h (5 Bft) 100,00 %
09.02.2019 03:52 8,2 C 7,8 C 6,7 C 88 % 998,0 hPa 0,0 l/m 0 min 0 min 0 W/m 25,7 km/h (4 Bft) 97,87 %
09.02.2019 03:54 8,2 C 7,8 C 6,7 C 88 % 998,0 hPa 0,0 l/m 0 min 0 min 0 W/m 29,0 km/h (5 Bft) 95,65 %
09.02.2019 03:56 8,1 C 7,8 C 6,7 C 88 % 998,0 hPa 0,0 l/m 0 min 0 min 0 W/m 22,5 km/h (4 Bft) 98,00 %
09.02.2019 03:58 8,1 C 7,8 C 6,7 C 88 % 998,0 hPa 0,0 l/m 0 min 0 min 0 W/m 35,4 km/h (5 Bft) 97,87 %
09.02.2019 04:00 8,1 C 7,8 C 6,7 C 87 % 998,1 hPa 0,0 l/m 0 min 0 min 0 W/m 32,2 km/h (5 Bft) 97,87 %
09.02.2019 04:05 8,2 C 7,8 C 6,7 C 87 % 998,1 hPa 0,0 l/m 0 min 0 min 0 W/m 22,5 km/h (4 Bft) 95,59 %
09.02.2019 04:06 8,1 C 7,8 C 6,7 C 87 % 998,1 hPa 0,0 l/m 0 min 0 min 0 W/m 32,2 km/h (5 Bft) 100,00 %
09.02.2019 04:08 8,1 C 7,8 C 6,7 C 87 % 998,2 hPa 0,0 l/m 0 min 0 min 0 W/m 22,5 km/h (4 Bft) 97,22 %
09.02.2019 04:10 8,1 C 7,2 C 6,7 C 86 % 998,1 hPa 0,0 l/m 0 min 0 min 0 W/m 19,3 km/h (3 Bft) 97,83 %
09.02.2019 04:12 8,1 C 7,2 C 6,7 C 86 % 998,1 hPa 0,0 l/m 0 min 0 min 0 W/m 16,1 km/h (3 Bft) 98,21 %
09.02.2019 04:14 8,1 C 7,8 C 6,7 C 86 % 998,3 hPa 0,0 l/m 0 min 0 min 0 W/m 19,3 km/h (3 Bft) 96,00 %
09.02.2019 04:16 8,1 C 7,8 C 6,7 C 86 % 998,2 hPa 0,0 l/m 0 min 0 min 0 W/m 19,3 km/h (3 Bft) 95,65 %
09.02.2019 04:18 8,1 C 7,8 C 6,7 C 86 % 998,3 hPa 0,0 l/m 0 min 0 min 0 W/m 29,0 km/h (5 Bft) 97,87 %
09.02.2019 04:20 8,1 C 7,8 C 6,7 C 86 % 998,2 hPa 0,0 l/m 0 min 0 min 0 W/m 19,3 km/h (3 Bft) 94,44 %
09.02.2019 04:22 8,1 C 7,8 C 6,7 C 86 % 998,2 hPa 0,0 l/m 0 min 0 min 0 W/m 19,3 km/h (3 Bft) 94,55 %
09.02.2019 04:24 8,1 C 7,2 C 6,7 C 86 % 998,2 hPa 0,0 l/m 0 min 0 min 0 W/m 32,2 km/h (5 Bft) 94,00 %
09.02.2019 04:26 8,1 C 7,2 C 6,7 C 86 % 998,2 hPa 0,0 l/m 0 min 0 min 0 W/m 38,6 km/h (5 Bft) 91,49 %
09.02.2019 04:28 8,1 C 7,2 C 6,7 C 86 % 998,3 hPa 0,0 l/m 0 min 0 min 0 W/m 22,5 km/h (4 Bft) 93,48 %
09.02.2019 04:30 8,1 C 7,2 C 6,7 C 86 % 998,3 hPa 0,0 l/m 0 min 0 min 0 W/m 29,0 km/h (5 Bft) 95,74 %
09.02.2019 04:32 8,1 C 7,2 C 6,7 C 86 % 998,4 hPa 0,0 l/m 0 min 0 min 0 W/m 25,7 km/h (4 Bft) 91,49 %
09.02.2019 04:34 8,1 C 7,2 C 6,7 C 85 % 998,3 hPa 0,0 l/m 0 min 0 min 0 W/m 22,5 km/h (4 Bft) 94,00 %
09.02.2019 04:36 8,0 C 7,2 C 6,7 C 85 % 998,5 hPa 0,0 l/m 0 min 0 min 0 W/m 19,3 km/h (3 Bft) 92,00 %
09.02.2019 04:38 8,0 C 7,2 C 6,7 C 85 % 998,4 hPa 0,0 l/m 0 min 0 min 0 W/m 35,4 km/h (5 Bft) 97,14 %
09.02.2019 04:40 8,0 C 7,2 C 6,7 C 85 % 998,5 hPa 0,0 l/m 0 min 0 min 0 W/m 32,2 km/h (5 Bft) 93,62 %
09.02.2019 04:42 8,0 C 7,2 C 6,7 C 85 % 998,2 hPa 0,0 l/m 0 min 0 min 0 W/m 25,7 km/h (4 Bft) 95,65 %
09.02.2019 04:44 7,9 C 7,2 C 6,7 C 85 % 998,4 hPa 0,0 l/m 0 min 0 min 0 W/m 29,0 km/h (5 Bft) 98,00 %
09.02.2019 04:46 7,9 C 7,2 C 6,7 C 86 % 998,4 hPa 0,0 l/m 0 min 0 min 0 W/m 22,5 km/h (4 Bft) 95,74 %
09.02.2019 04:48 7,9 C 7,2 C 6,7 C 86 % 998,7 hPa 0,0 l/m 0 min 2 min 0 W/m 29,0 km/h (5 Bft) 95,74 %
09.02.2019 04:50 7,9 C 7,2 C 6,1 C 86 % 998,7 hPa 0,0 l/m 0 min 2 min 0 W/m 19,3 km/h (3 Bft) 95,45 %
09.02.2019 04:52 7,9 C 6,7 C 6,1 C 86 % 998,6 hPa 0,0 l/m 0 min 2 min 0 W/m 22,5 km/h (4 Bft) 95,65 %
09.02.2019 04:54 7,9 C 6,7 C 5,6 C 86 % 998,6 hPa 0,0 l/m 0 min 2 min 0 W/m 29,0 km/h (5 Bft) 95,74 %
09.02.2019 04:56 7,9 C 6,7 C 6,1 C 86 % 998,7 hPa 0,0 l/m 0 min 2 min 0 W/m 9,7 km/h (2 Bft) 94,00 %
09.02.2019 04:58 7,9 C 7,2 C 6,1 C 87 % 998,6 hPa 0,0 l/m 0 min 2 min 0 W/m 25,7 km/h (4 Bft) 95,74 %
09.02.2019 05:00 7,9 C 7,2 C 6,1 C 86 % 998,7 hPa 0,0 l/m 0 min 0 min 0 W/m 22,5 km/h (4 Bft) 93,62 %
09.02.2019 05:02 7,9 C 7,2 C 6,1 C 87 % 998,7 hPa 0,0 l/m 0 min 0 min 0 W/m 19,3 km/h (3 Bft) 95,74 %
09.02.2019 05:04 7,9 C 7,2 C 6,1 C 87 % 998,8 hPa 0,0 l/m 0 min 0 min 0 W/m 22,5 km/h (4 Bft) 97,83 %
09.02.2019 05:05 7,9 C 7,2 C 6,1 C 87 % 998,7 hPa 0,0 l/m 0 min 0 min 0 W/m 22,5 km/h (4 Bft) 99,12 %
09.02.2019 05:10 7,9 C 7,2 C 6,7 C 87 % 998,9 hPa 0,0 l/m 0 min 0 min 0 W/m 35,4 km/h (5 Bft) 100,00 %
09.02.2019 05:12 7,9 C 7,2 C 6,7 C 87 % 998,8 hPa 0,0 l/m 0 min 0 min 0 W/m 12,9 km/h (3 Bft) 100,00 %
09.02.2019 05:14 7,9 C 7,2 C 6,7 C 87 % 998,8 hPa 0,0 l/m 0 min 0 min 0 W/m 22,5 km/h (4 Bft) 93,62 %
09.02.2019 05:16 7,9 C 7,2 C 6,7 C 86 % 998,9 hPa 0,0 l/m 0 min 0 min 0 W/m 25,7 km/h (4 Bft) 93,33 %
09.02.2019 05:18 7,9 C 7,2 C 6,7 C 86 % 998,9 hPa 0,0 l/m 0 min 0 min 0 W/m 22,5 km/h (4 Bft) 100,00 %
09.02.2019 05:20 7,8 C 7,2 C 6,7 C 86 % 998,9 hPa 0,0 l/m 0 min 0 min 0 W/m 25,7 km/h (4 Bft) 100,00 %
09.02.2019 05:22 7,8 C 7,2 C 6,7 C 86 % 998,9 hPa 0,0 l/m 0 min 0 min 0 W/m 16,1 km/h (3 Bft) 100,00 %
09.02.2019 05:24 7,8 C 7,2 C 6,7 C 86 % 998,9 hPa 0,0 l/m 0 min 0 min 0 W/m 25,7 km/h (4 Bft) 100,00 %
09.02.2019 05:26 7,8 C 7,2 C 6,1 C 86 % 999,0 hPa 0,0 l/m 0 min 0 min 0 W/m 25,7 km/h (4 Bft) 97,96 %
09.02.2019 05:28 7,8 C 7,2 C 6,1 C 86 % 999,0 hPa 0,0 l/m 0 min 0 min 0 W/m 22,5 km/h (4 Bft) 100,00 %
09.02.2019 05:30 7,8 C 7,2 C 6,7 C 86 % 999,0 hPa 0,0 l/m 0 min 0 min 0 W/m 29,0 km/h (5 Bft) 100,00 %
09.02.2019 05:32 7,8 C 7,2 C 6,1 C 86 % 999,0 hPa 0,0 l/m 0 min 0 min 0 W/m 16,1 km/h (3 Bft) 97,87 %
09.02.2019 05:34 7,7 C 7,2 C 6,1 C 86 % 999,0 hPa 0,0 l/m 0 min 0 min 0 W/m 19,3 km/h (3 Bft) 100,00 %
09.02.2019 05:36 7,7 C 7,2 C 6,1 C 86 % 999,2 hPa 0,0 l/m 0 min 0 min 0 W/m 29,0 km/h (5 Bft) 96,00 %
09.02.2019 05:38 7,7 C 7,2 C 6,1 C 86 % 999,0 hPa 0,0 l/m 0 min 0 min 0 W/m 19,3 km/h (3 Bft) 100,00 %
09.02.2019 05:40 7,7 C 7,2 C 6,1 C 86 % 999,2 hPa 0,0 l/m 0 min 0 min 0 W/m 29,0 km/h (5 Bft) 97,87 %
09.02.2019 05:42 7,7 C 7,2 C 6,1 C 86 % 999,2 hPa 0,0 l/m 0 min 0 min 0 W/m 16,1 km/h (3 Bft) 95,35 %
09.02.2019 05:44 7,7 C 7,2 C 6,1 C 86 % 999,0 hPa 0,0 l/m 0 min 0 min 0 W/m 29,0 km/h (5 Bft) 100,00 %
09.02.2019 05:46 7,7 C 7,2 C 6,1 C 86 % 999,2 hPa 0,0 l/m 0 min 0 min 0 W/m 25,7 km/h (4 Bft) 100,00 %
09.02.2019 05:48 7,7 C 7,2 C 6,1 C 86 % 999,2 hPa 0,0 l/m 0 min 0 min 0 W/m 6,4 km/h (2 Bft) 97,96 %
09.02.2019 05:50 7,7 C 7,2 C 6,1 C 86 % 999,2 hPa 0,0 l/m 0 min 0 min 0 W/m 9,7 km/h (2 Bft) 100,00 %
09.02.2019 05:52 7,7 C 7,2 C 6,1 C 86 % 999,3 hPa 0,0 l/m 0 min 0 min 0 W/m 16,1 km/h (3 Bft) 100,00 %
09.02.2019 05:54 7,7 C 6,7 C 6,1 C 86 % 999,3 hPa 0,0 l/m 0 min 0 min 0 W/m 16,1 km/h (3 Bft) 100,00 %
09.02.2019 05:56 7,6 C 7,2 C 6,1 C 86 % 999,3 hPa 0,0 l/m 0 min 0 min 0 W/m 19,3 km/h (3 Bft) 100,00 %
09.02.2019 05:58 7,6 C 7,2 C 6,1 C 86 % 999,3 hPa 0,0 l/m 0 min 0 min 0 W/m 19,3 km/h (3 Bft) 100,00 %
09.02.2019 06:00 7,6 C 7,2 C 6,1 C 86 % 999,4 hPa 0,0 l/m 0 min 0 min 0 W/m 16,1 km/h (3 Bft) 100,00 %
09.02.2019 06:02 7,6 C 7,2 C 6,1 C 86 % 999,3 hPa 0,0 l/m 0 min 0 min 0 W/m 16,1 km/h (3 Bft) 100,00 %
09.02.2019 06:04 7,6 C 7,2 C 6,1 C 86 % 999,4 hPa 0,0 l/m 0 min 0 min 0 W/m 12,9 km/h (3 Bft) 100,00 %
09.02.2019 06:07 7,6 C 7,2 C 6,7 C 86 % 999,4 hPa 0,0 l/m 0 min 0 min 0 W/m 25,7 km/h (4 Bft) 97,22 %
09.02.2019 06:08 7,6 C 7,2 C 6,7 C 86 % 999,4 hPa 0,0 l/m 0 min 0 min 0 W/m 22,5 km/h (4 Bft) 100,00 %
09.02.2019 06:10 7,6 C 7,2 C 6,7 C 86 % 999,5 hPa 0,0 l/m 0 min 0 min 0 W/m 32,2 km/h (5 Bft) 100,00 %
09.02.2019 06:12 7,7 C 7,2 C 6,7 C 86 % 999,4 hPa 0,0 l/m 0 min 0 min 0 W/m 22,5 km/h (4 Bft) 100,00 %
09.02.2019 06:14 7,7 C 7,2 C 6,7 C 86 % 999,5 hPa 0,0 l/m 0 min 0 min 0 W/m 19,3 km/h (3 Bft) 95,74 %
09.02.2019 06:16 7,7 C 7,2 C 6,7 C 86 % 999,5 hPa 0,0 l/m 0 min 0 min 0 W/m 19,3 km/h (3 Bft) 100,00 %
09.02.2019 06:18 7,7 C 7,2 C 6,7 C 86 % 999,5 hPa 0,0 l/m 0 min 0 min 0 W/m 16,1 km/h (3 Bft) 100,00 %
09.02.2019 06:20 7,7 C 7,2 C 6,7 C 86 % 999,5 hPa 0,0 l/m 0 min 0 min 0 W/m 12,9 km/h (3 Bft) 100,00 %
09.02.2019 06:22 7,7 C 7,2 C 6,7 C 86 % 999,7 hPa 0,0 l/m 0 min 0 min 0 W/m 32,2 km/h (5 Bft) 97,92 %
09.02.2019 06:24 7,7 C 7,2 C 6,7 C 86 % 999,7 hPa 0,0 l/m 0 min 0 min 0 W/m 25,7 km/h (4 Bft) 97,87 %
09.02.2019 06:26 7,8 C 7,2 C 6,7 C 86 % 999,7 hPa 0,0 l/m 0 min 0 min 0 W/m 12,9 km/h (3 Bft) 100,00 %
09.02.2019 06:28 7,8 C 7,2 C 6,7 C 86 % 999,7 hPa 0,0 l/m 0 min 0 min 0 W/m 19,3 km/h (3 Bft) 100,00 %
09.02.2019 06:30 7,8 C 7,2 C 6,7 C 86 % 999,7 hPa 0,0 l/m 0 min 0 min 0 W/m 25,7 km/h (4 Bft) 97,92 %
09.02.2019 06:32 7,8 C 7,2 C 6,7 C 86 % 999,7 hPa 0,0 l/m 0 min 0 min 0 W/m 25,7 km/h (4 Bft) 94,00 %
09.02.2019 06:34 7,8 C 7,2 C 6,7 C 86 % 999,9 hPa 0,0 l/m 0 min 0 min 0 W/m 29,0 km/h (5 Bft) 97,87 %
09.02.2019 06:36 7,8 C 7,2 C 6,7 C 86 % 999,8 hPa 0,0 l/m 0 min 0 min 0 W/m 29,0 km/h (5 Bft) 97,87 %
09.02.2019 06:38 7,8 C 7,2 C 6,7 C 86 % 999,8 hPa 0,0 l/m 0 min 0 min 0 W/m 29,0 km/h (5 Bft) 97,87 %
09.02.2019 06:40 7,8 C 7,2 C 6,7 C 86 % 999,9 hPa 0,0 l/m 0 min 0 min 0 W/m 22,5 km/h (4 Bft) 97,67 %
09.02.2019 06:42 7,8 C 7,2 C 6,7 C 85 % 999,9 hPa 0,0 l/m 0 min 0 min 0 W/m 16,1 km/h (3 Bft) 97,92 %
09.02.2019 06:44 7,8 C 7,2 C 6,7 C 85 % 999,7 hPa 0,0 l/m 0 min 0 min 0 W/m 22,5 km/h (4 Bft) 97,96 %
09.02.2019 06:46 7,8 C 7,2 C 6,7 C 85 % 999,9 hPa 0,0 l/m 0 min 0 min 0 W/m 38,6 km/h (5 Bft) 95,74 %
09.02.2019 06:48 7,8 C 7,2 C 6,7 C 85 % 999,8 hPa 0,0 l/m 0 min 0 min 0 W/m 32,2 km/h (5 Bft) 97,87 %
09.02.2019 06:50 7,8 C 7,2 C 6,7 C 85 % 999,9 hPa 0,0 l/m 0 min 0 min 0 W/m 16,1 km/h (3 Bft) 97,87 %
09.02.2019 06:52 7,8 C 7,2 C 6,7 C 85 % 999,9 hPa 0,0 l/m 0 min 0 min 0 W/m 25,7 km/h (4 Bft) 97,62 %
09.02.2019 06:54 7,8 C 7,2 C 6,1 C 85 % 999,9 hPa 0,0 l/m 0 min 0 min 0 W/m 32,2 km/h (5 Bft) 100,00 %
09.02.2019 06:56 7,8 C 7,2 C 6,1 C 85 % 1000,0 hPa 0,0 l/m 0 min 0 min 0 W/m 16,1 km/h (3 Bft) 95,92 %
09.02.2019 06:58 7,8 C 7,2 C 6,1 C 85 % 1000,1 hPa 0,0 l/m 0 min 0 min 0 W/m 25,7 km/h (4 Bft) 93,62 %
09.02.2019 07:00 7,7 C 7,2 C 6,1 C 85 % 1000,1 hPa 0,0 l/m 0 min 0 min 0 W/m 12,9 km/h (3 Bft) 95,74 %
09.02.2019 07:02 7,7 C 7,2 C 6,7 C 85 % 1000,1 hPa 0,0 l/m 0 min 0 min 0 W/m 29,0 km/h (5 Bft) 95,74 %
09.02.2019 07:04 7,7 C 7,2 C 6,1 C 85 % 1000,2 hPa 0,0 l/m 0 min 0 min 0 W/m 25,7 km/h (4 Bft) 93,62 %
09.02.2019 07:06 7,7 C 7,2 C 6,1 C 85 % 1000,2 hPa 0,0 l/m 0 min 0 min 0 W/m 22,5 km/h (4 Bft) 95,74 %
09.02.2019 07:08 7,7 C 7,2 C 6,1 C 85 % 1000,3 hPa 0,0 l/m 0 min 0 min 0 W/m 16,1 km/h (3 Bft) 95,74 %
09.02.2019 07:10 7,7 C 7,2 C 6,7 C 86 % 1000,3 hPa 0,0 l/m 0 min 0 min 0 W/m 25,7 km/h (4 Bft) 95,65 %
09.02.2019 07:12 7,7 C 7,2 C 6,7 C 86 % 1000,4 hPa 0,0 l/m 0 min 0 min 0 W/m 22,5 km/h (4 Bft) 93,02 %
09.02.2019 07:14 7,7 C 7,2 C 6,1 C 86 % 1000,2 hPa 0,0 l/m 0 min 0 min 0 W/m 16,1 km/h (3 Bft) 93,88 %
09.02.2019 07:16 7,7 C 7,2 C 6,7 C 86 % 1000,5 hPa 0,0 l/m 0 min 0 min 0 W/m 38,6 km/h (5 Bft) 95,83 %
09.02.2019 07:18 7,7 C 7,2 C 6,7 C 86 % 1000,6 hPa 0,0 l/m 0 min 0 min 0 W/m 22,5 km/h (4 Bft) 91,67 %
09.02.2019 07:20 7,7 C 6,1 C 5,6 C 86 % 1000,6 hPa 0,0 l/m 0 min 2 min 0 W/m 29,0 km/h (5 Bft) 95,65 %
09.02.2019 07:22 7,7 C 5,6 C 5,6 C 86 % 1000,6 hPa 0,2 l/m 0 min 2 min 0 W/m 22,5 km/h (4 Bft) 97,87 %
09.02.2019 07:24 7,7 C 5,6 C 5,0 C 86 % 1000,8 hPa 0,0 l/m 0 min 2 min 0 W/m 22,5 km/h (4 Bft) 97,67 %
09.02.2019 07:26 7,7 C 5,6 C 5,0 C 87 % 1000,6 hPa 0,0 l/m 0 min 2 min 0 W/m 25,7 km/h (4 Bft) 97,87 %
09.02.2019 07:28 7,6 C 5,6 C 5,0 C 87 % 1000,7 hPa 0,0 l/m 0 min 2 min 0 W/m 29,0 km/h (5 Bft) 97,92 %
09.02.2019 07:30 7,6 C 5,6 C 5,0 C 88 % 1000,8 hPa 0,0 l/m 0 min 2 min 0 W/m 48,3 km/h (6 Bft) 95,92 %
09.02.2019 07:32 7,4 C 5,0 C 4,4 C 88 % 1000,9 hPa 0,4 l/m 0 min 2 min 0 W/m 41,8 km/h (6 Bft) 95,83 %
09.02.2019 07:34 7,4 C 5,0 C 4,4 C 88 % 1000,9 hPa 0,0 l/m 0 min 2 min 0 W/m 22,5 km/h (4 Bft) 97,87 %
09.02.2019 07:36 7,2 C 5,0 C 4,4 C 88 % 1001,4 hPa 0,4 l/m 0 min 2 min 0 W/m 41,8 km/h (6 Bft) 97,87 %
09.02.2019 07:38 7,1 C 5,0 C 4,4 C 88 % 1000,4 hPa 0,2 l/m 0 min 2 min 0 W/m 25,7 km/h (4 Bft) 97,87 %
09.02.2019 07:40 7,0 C 5,0 C 4,4 C 89 % 1000,5 hPa 0,2 l/m 0 min 2 min 0 W/m 19,3 km/h (3 Bft) 97,87 %
09.02.2019 07:42 6,9 C 5,0 C 4,4 C 89 % 1000,4 hPa 0,0 l/m 0 min 0 min 0 W/m 22,5 km/h (4 Bft) 97,62 %
09.02.2019 07:44 6,8 C 5,0 C 4,4 C 89 % 1000,4 hPa 0,0 l/m 0 min 0 min 0 W/m 22,5 km/h (4 Bft) 100,00 %
09.02.2019 07:46 6,8 C 5,0 C 4,4 C 90 % 1000,4 hPa 0,0 l/m 0 min 0 min 0 W/m 22,5 km/h (4 Bft) 100,00 %
09.02.2019 07:48 6,7 C 5,0 C 4,4 C 90 % 1000,5 hPa 0,0 l/m 0 min 0 min 0 W/m 9,7 km/h (2 Bft) 100,00 %
09.02.2019 07:50 6,7 C 5,0 C 5,0 C 90 % 1000,7 hPa 0,0 l/m 0 min 0 min 0 W/m 22,5 km/h (4 Bft) 97,87 %
09.02.2019 07:52 6,7 C 5,6 C 5,0 C 90 % 1000,8 hPa 0,0 l/m 0 min 0 min 0 W/m 19,3 km/h (3 Bft) 97,87 %
09.02.2019 07:54 6,7 C 5,6 C 5,0 C 91 % 1000,9 hPa 0,0 l/m 0 min 0 min 0 W/m 29,0 km/h (5 Bft) 97,87 %
09.02.2019 07:56 6,7 C 5,6 C 5,0 C 91 % 1001,0 hPa 0,0 l/m 0 min 2 min 0 W/m 29,0 km/h (5 Bft) 95,24 %
09.02.2019 07:58 6,7 C 5,6 C 5,0 C 91 % 1001,2 hPa 0,0 l/m 0 min 2 min 0 W/m 22,5 km/h (4 Bft) 98,00 %
09.02.2019 08:00 6,7 C 5,6 C 5,0 C 91 % 1001,0 hPa 0,0 l/m 0 min 2 min 0 W/m 9,7 km/h (2 Bft) 100,00 %
09.02.2019 08:02 6,7 C 5,6 C 5,0 C 92 % 1001,2 hPa 0,0 l/m 0 min 2 min 0 W/m 9,7 km/h (2 Bft) 97,87 %
09.02.2019 08:04 6,7 C 5,6 C 5,0 C 91 % 1001,2 hPa 0,0 l/m 0 min 2 min 0 W/m 12,9 km/h (3 Bft) 95,74 %
09.02.2019 08:06 6,7 C 5,6 C 5,0 C 92 % 1001,0 hPa 0,0 l/m 0 min 2 min 2 W/m 35,4 km/h (5 Bft) 97,96 %
09.02.2019 08:08 6,7 C 5,6 C 5,0 C 92 % 1001,4 hPa 0,0 l/m 0 min 2 min 6 W/m 25,7 km/h (4 Bft) 97,96 %
09.02.2019 08:10 6,7 C 5,6 C 5,0 C 92 % 1001,4 hPa 0,0 l/m 0 min 2 min 7 W/m 29,0 km/h (5 Bft) 97,87 %
09.02.2019 08:12 6,8 C 5,6 C 5,0 C 92 % 1001,5 hPa 0,0 l/m 0 min 2 min 1 W/m 41,8 km/h (6 Bft) 95,74 %
09.02.2019 08:14 6,8 C 5,0 C 4,4 C 92 % 1001,5 hPa 0,2 l/m 0 min 2 min 0 W/m 45,1 km/h (6 Bft) 95,74 %
09.02.2019 08:16 6,7 C 4,4 C 4,4 C 91 % 1001,6 hPa 0,2 l/m 0 min 2 min 0 W/m 29,0 km/h (5 Bft) 97,87 %
09.02.2019 08:18 6,6 C 4,4 C 3,9 C 91 % 1001,6 hPa 0,0 l/m 0 min 2 min 2 W/m 32,2 km/h (5 Bft) 97,62 %
09.02.2019 08:20 6,5 C 4,4 C 3,9 C 90 % 1001,4 hPa 0,0 l/m 0 min 2 min 3 W/m 25,7 km/h (4 Bft) 97,87 %
09.02.2019 08:22 6,4 C 4,4 C 3,9 C 90 % 1001,7 hPa 0,0 l/m 0 min 2 min 3 W/m 22,5 km/h (4 Bft) 97,96 %
09.02.2019 08:24 6,4 C 4,4 C 3,9 C 90 % 1001,7 hPa 0,2 l/m 0 min 2 min 9 W/m 25,7 km/h (4 Bft) 97,96 %
09.02.2019 08:26 6,4 C 4,4 C 4,4 C 90 % 1001,5 hPa 0,0 l/m 0 min 2 min 11 W/m 25,7 km/h (4 Bft) 97,87 %
09.02.2019 08:28 6,4 C 4,4 C 3,9 C 91 % 1001,4 hPa 0,0 l/m 0 min 2 min 13 W/m 19,3 km/h (3 Bft) 97,87 %
09.02.2019 08:30 6,4 C 4,4 C 4,4 C 91 % 1001,5 hPa 0,0 l/m 0 min 2 min 25 W/m 22,5 km/h (4 Bft) 97,87 %
09.02.2019 08:32 6,3 C 5,0 C 4,4 C 91 % 1001,6 hPa 0,0 l/m 0 min 2 min 31 W/m 16,1 km/h (3 Bft) 97,67 %
09.02.2019 08:34 6,3 C 5,0 C 4,4 C 91 % 1001,6 hPa 0,0 l/m 0 min 2 min 17 W/m 12,9 km/h (3 Bft) 91,84 %
09.02.2019 08:36 6,3 C 5,0 C 4,4 C 91 % 1001,8 hPa 0,0 l/m 0 min 2 min 9 W/m 16,1 km/h (3 Bft) 97,92 %
09.02.2019 08:38 6,4 C 5,0 C 4,4 C 92 % 1001,7 hPa 0,0 l/m 0 min 2 min 7 W/m 25,7 km/h (4 Bft) 91,49 %
09.02.2019 08:40 6,4 C 5,0 C 4,4 C 92 % 1001,8 hPa 0,0 l/m 0 min 2 min 11 W/m 12,9 km/h (3 Bft) 95,74 %
09.02.2019 08:42 6,4 C 5,0 C 4,4 C 92 % 1001,9 hPa 0,0 l/m 0 min 2 min 17 W/m 22,5 km/h (4 Bft) 95,74 %
09.02.2019 08:44 6,4 C 5,0 C 4,4 C 92 % 1001,8 hPa 0,0 l/m 0 min 2 min 11 W/m 32,2 km/h (5 Bft) 95,12 %
09.02.2019 08:46 6,4 C 5,0 C 4,4 C 92 % 1001,8 hPa 0,0 l/m 0 min 2 min 15 W/m 12,9 km/h (3 Bft) 93,88 %
09.02.2019 08:48 6,4 C 5,0 C 4,4 C 92 % 1001,8 hPa 0,2 l/m 0 min 2 min 15 W/m 22,5 km/h (4 Bft) 93,88 %
09.02.2019 08:50 6,4 C 5,0 C 4,4 C 92 % 1001,9 hPa 0,0 l/m 0 min 2 min 19 W/m 22,5 km/h (4 Bft) 95,83 %
09.02.2019 08:52 6,4 C 5,0 C 4,4 C 92 % 1001,8 hPa 0,0 l/m 0 min 2 min 29 W/m 22,5 km/h (4 Bft) 97,87 %
09.02.2019 08:54 6,5 C 5,0 C 4,4 C 92 % 1001,8 hPa 0,0 l/m 0 min 2 min 22 W/m 38,6 km/h (5 Bft) 100,00 %
09.02.2019 08:56 6,5 C 5,0 C 4,4 C 92 % 1001,8 hPa 0,0 l/m 0 min 2 min 20 W/m 19,3 km/h (3 Bft) 100,00 %
09.02.2019 08:58 6,5 C 5,0 C 4,4 C 92 % 1001,9 hPa 0,0 l/m 0 min 2 min 19 W/m 22,5 km/h (4 Bft) 100,00 %
09.02.2019 09:00 6,5 C 5,6 C 4,4 C 92 % 1001,9 hPa 0,0 l/m 0 min 2 min 20 W/m 16,1 km/h (3 Bft) 97,87 %
09.02.2019 09:02 6,5 C 5,6 C 4,4 C 92 % 1002,0 hPa 0,0 l/m 0 min 2 min 25 W/m 22,5 km/h (4 Bft) 100,00 %
09.02.2019 09:04 6,5 C 5,6 C 4,4 C 92 % 1001,9 hPa 0,0 l/m 0 min 2 min 30 W/m 22,5 km/h (4 Bft) 100,00 %
09.02.2019 09:06 6,5 C 5,6 C 5,0 C 92 % 1002,0 hPa 0,0 l/m 0 min 2 min 33 W/m 25,7 km/h (4 Bft) 97,87 %
09.02.2019 09:08 6,5 C 5,6 C 5,0 C 92 % 1002,0 hPa 0,0 l/m 0 min 2 min 34 W/m 19,3 km/h (3 Bft) 97,83 %
09.02.2019 09:10 6,6 C 5,6 C 5,0 C 92 % 1002,0 hPa 0,0 l/m 0 min 2 min 34 W/m 22,5 km/h (4 Bft) 93,62 %
09.02.2019 09:12 6,6 C 5,6 C 5,0 C 92 % 1002,0 hPa 0,0 l/m 0 min 2 min 35 W/m 25,7 km/h (4 Bft) 97,67 %
09.02.2019 09:14 6,6 C 5,6 C 5,0 C 92 % 1002,0 hPa 0,0 l/m 0 min 2 min 37 W/m 35,4 km/h (5 Bft) 95,92 %
09.02.2019 09:16 6,6 C 6,1 C 5,0 C 92 % 1001,9 hPa 0,0 l/m 0 min 2 min 38 W/m 29,0 km/h (5 Bft) 95,92 %
09.02.2019 09:18 6,7 C 6,1 C 5,0 C 92 % 1002,1 hPa 0,0 l/m 0 min 2 min 39 W/m 12,9 km/h (3 Bft) 97,87 %
09.02.2019 09:20 6,7 C 6,1 C 5,0 C 91 % 1002,2 hPa 0,0 l/m 0 min 2 min 39 W/m 25,7 km/h (4 Bft) 100,00 %
09.02.2019 09:22 6,8 C 6,1 C 5,0 C 91 % 1002,1 hPa 0,0 l/m 0 min 2 min 42 W/m 25,7 km/h (4 Bft) 100,00 %
09.02.2019 09:24 6,8 C 6,1 C 5,0 C 91 % 1002,1 hPa 0,0 l/m 0 min 2 min 45 W/m 29,0 km/h (5 Bft) 97,96 %
09.02.2019 09:26 6,9 C 6,1 C 5,0 C 90 % 1002,1 hPa 0,0 l/m 0 min 2 min 53 W/m 22,5 km/h (4 Bft) 97,92 %
09.02.2019 09:28 7,0 C 6,7 C 5,0 C 90 % 1002,2 hPa 0,0 l/m 0 min 2 min 90 W/m 32,2 km/h (5 Bft) 97,96 %
09.02.2019 09:30 7,1 C 7,2 C 5,6 C 89 % 1002,1 hPa 0,0 l/m 2 min 2 min 162 W/m 41,8 km/h (6 Bft) 97,96 %
09.02.2019 09:32 7,2 C 7,8 C 5,6 C 89 % 1002,2 hPa 0,0 l/m 2 min 2 min 171 W/m 32,2 km/h (5 Bft) 97,87 %
09.02.2019 09:34 7,3 C 7,8 C 5,6 C 89 % 1002,2 hPa 0,0 l/m 2 min 2 min 174 W/m 22,5 km/h (4 Bft) 95,74 %
09.02.2019 09:36 7,3 C 7,8 C 5,6 C 89 % 1002,2 hPa 0,0 l/m 2 min 2 min 107 W/m 25,7 km/h (4 Bft) 95,74 %
09.02.2019 09:38 7,4 C 7,8 C 5,6 C 88 % 1002,2 hPa 0,0 l/m 0 min 2 min 64 W/m 22,5 km/h (4 Bft) 92,68 %
09.02.2019 09:40 7,5 C 7,8 C 5,6 C 88 % 1002,6 hPa 0,0 l/m 2 min 2 min 159 W/m 48,3 km/h (6 Bft) 93,62 %
09.02.2019 09:42 7,7 C 7,8 C 5,6 C 87 % 1002,5 hPa 0,0 l/m 2 min 2 min 196 W/m 45,1 km/h (6 Bft) 93,88 %
09.02.2019 09:44 7,7 C 8,3 C 5,6 C 86 % 1002,3 hPa 0,0 l/m 2 min 2 min 200 W/m 22,5 km/h (4 Bft) 95,92 %
09.02.2019 09:46 7,8 C 8,3 C 5,6 C 86 % 1002,4 hPa 0,0 l/m 2 min 2 min 195 W/m 45,1 km/h (6 Bft) 93,75 %
09.02.2019 09:48 7,9 C 8,3 C 5,6 C 85 % 1002,3 hPa 0,0 l/m 2 min 2 min 199 W/m 32,2 km/h (5 Bft) 95,74 %
09.02.2019 09:50 8,0 C 8,3 C 5,6 C 85 % 1002,3 hPa 0,0 l/m 0 min 0 min 82 W/m 25,7 km/h (4 Bft) 93,62 %
09.02.2019 09:52 8,0 C 7,8 C 5,6 C 84 % 1002,3 hPa 0,0 l/m 0 min 0 min 66 W/m 32,2 km/h (5 Bft) 95,12 %
09.02.2019 09:54 8,0 C 8,3 C 5,6 C 84 % 1002,2 hPa 0,0 l/m 0 min 0 min 56 W/m 32,2 km/h (5 Bft) 95,92 %
09.02.2019 09:56 8,1 C 7,8 C 5,6 C 83 % 1002,2 hPa 0,0 l/m 0 min 0 min 34 W/m 41,8 km/h (6 Bft) 97,96 %
09.02.2019 09:58 8,1 C 8,3 C 5,6 C 83 % 1002,3 hPa 0,0 l/m 0 min 0 min 51 W/m 35,4 km/h (5 Bft) 91,67 %
09.02.2019 10:00 8,1 C 8,9 C 6,1 C 83 % 1002,3 hPa 0,0 l/m 2 min 0 min 177 W/m 41,8 km/h (6 Bft) 95,74 %
09.02.2019 10:02 8,1 C 9,4 C 6,1 C 82 % 1002,2 hPa 0,0 l/m 2 min 0 min 168 W/m 41,8 km/h (6 Bft) 95,74 %
09.02.2019 10:04 8,2 C 9,4 C 6,1 C 82 % 1002,2 hPa 0,0 l/m 2 min 0 min 214 W/m 54,7 km/h (7 Bft) 95,74 %
09.02.2019 10:06 8,2 C 10,0 C 6,1 C 82 % 1002,2 hPa 0,0 l/m 2 min 0 min 242 W/m 41,8 km/h (6 Bft) 95,65 %
09.02.2019 10:08 8,3 C 10,6 C 6,1 C 81 % 1002,3 hPa 0,0 l/m 2 min 0 min 256 W/m 57,9 km/h (7 Bft) 91,67 %
09.02.2019 10:10 8,4 C 11,1 C 6,7 C 81 % 1002,4 hPa 0,0 l/m 2 min 0 min 297 W/m 32,2 km/h (5 Bft) 95,74 %
09.02.2019 10:12 8,5 C 10,0 C 6,7 C 82 % 1002,3 hPa 0,0 l/m 2 min 0 min 195 W/m 19,3 km/h (3 Bft) 95,24 %
09.02.2019 10:14 8,6 C 10,0 C 6,7 C 81 % 1002,4 hPa 0,0 l/m 2 min 0 min 172 W/m 32,2 km/h (5 Bft) 95,92 %
09.02.2019 10:16 8,6 C 10,6 C 6,7 C 81 % 1002,5 hPa 0,0 l/m 2 min 0 min 206 W/m 32,2 km/h (5 Bft) 93,88 %
09.02.2019 10:18 8,7 C 11,1 C 7,2 C 81 % 1002,6 hPa 0,0 l/m 2 min 0 min 357 W/m 25,7 km/h (4 Bft) 97,87 %
09.02.2019 10:20 8,8 C 10,6 C 7,2 C 81 % 1002,6 hPa 0,0 l/m 2 min 0 min 364 W/m 32,2 km/h (5 Bft) 97,87 %
09.02.2019 10:22 8,8 C 9,4 C 6,7 C 80 % 1002,6 hPa 0,0 l/m 2 min 0 min 364 W/m 29,0 km/h (5 Bft) 93,62 %
09.02.2019 10:24 8,8 C 8,9 C 6,7 C 79 % 1002,6 hPa 0,0 l/m 0 min 0 min 107 W/m 22,5 km/h (4 Bft) 97,62 %
09.02.2019 10:26 8,8 C 8,9 C 6,7 C 79 % 1002,6 hPa 0,0 l/m 0 min 0 min 96 W/m 35,4 km/h (5 Bft) 100,00 %
09.02.2019 10:28 8,8 C 8,9 C 6,7 C 79 % 1002,7 hPa 0,0 l/m 0 min 0 min 110 W/m 41,8 km/h (6 Bft) 100,00 %
09.02.2019 10:30 8,8 C 8,9 C 6,7 C 79 % 1003,0 hPa 0,0 l/m 0 min 0 min 125 W/m 38,6 km/h (5 Bft) 95,74 %
09.02.2019 10:32 8,8 C 9,4 C 6,7 C 79 % 1002,8 hPa 0,0 l/m 2 min 0 min 176 W/m 38,6 km/h (5 Bft) 95,74 %
09.02.2019 10:34 8,8 C 8,9 C 6,7 C 79 % 1002,8 hPa 0,0 l/m 2 min 0 min 161 W/m 41,8 km/h (6 Bft) 100,00 %
09.02.2019 10:36 8,8 C 9,4 C 7,2 C 79 % 1002,8 hPa 0,0 l/m 2 min 0 min 200 W/m 51,5 km/h (7 Bft) 100,00 %
09.02.2019 10:38 8,9 C 11,1 C 7,2 C 79 % 1002,7 hPa 0,0 l/m 2 min 0 min 347 W/m 45,1 km/h (6 Bft) 100,00 %
09.02.2019 10:40 9,1 C 12,2 C 7,8 C 79 % 1002,7 hPa 0,0 l/m 2 min 0 min 362 W/m 19,3 km/h (3 Bft) 97,87 %
09.02.2019 10:42 9,2 C 10,6 C 7,2 C 79 % 1002,9 hPa 0,0 l/m 2 min 0 min 284 W/m 32,2 km/h (5 Bft) 97,92 %
09.02.2019 10:44 9,1 C 10,0 C 7,2 C 79 % 1002,7 hPa 0,0 l/m 2 min 0 min 192 W/m 25,7 km/h (4 Bft) 100,00 %
09.02.2019 10:46 9,1 C 9,4 C 7,2 C 79 % 1002,7 hPa 0,0 l/m 0 min 0 min 144 W/m 25,7 km/h (4 Bft) 100,00 %
09.02.2019 10:48 9,0 C 9,4 C 7,2 C 79 % 1002,8 hPa 0,0 l/m 0 min 0 min 140 W/m 29,0 km/h (5 Bft) 100,00 %
09.02.2019 10:50 8,9 C 9,4 C 7,2 C 79 % 1002,8 hPa 0,0 l/m 0 min 0 min 155 W/m 41,8 km/h (6 Bft) 100,00 %
09.02.2019 10:52 8,9 C 9,4 C 7,2 C 78 % 1002,9 hPa 0,0 l/m 2 min 0 min 187 W/m 35,4 km/h (5 Bft) 100,00 %
09.02.2019 10:54 8,9 C 9,4 C 7,2 C 78 % 1002,8 hPa 0,0 l/m 0 min 0 min 156 W/m 41,8 km/h (6 Bft) 100,00 %
09.02.2019 10:56 8,9 C 10,0 C 7,8 C 78 % 1002,8 hPa 0,0 l/m 2 min 0 min 195 W/m 35,4 km/h (5 Bft) 100,00 %
09.02.2019 10:58 8,9 C 9,4 C 7,8 C 77 % 1003,1 hPa 0,0 l/m 2 min 0 min 214 W/m 54,7 km/h (7 Bft) 100,00 %
09.02.2019 11:00 9,0 C 10,0 C 8,3 C 77 % 1002,8 hPa 0,0 l/m 2 min 0 min 266 W/m 29,0 km/h (5 Bft) 100,00 %
09.02.2019 11:02 9,1 C 10,6 C 8,3 C 77 % 1002,9 hPa 0,0 l/m 2 min 0 min 231 W/m 45,1 km/h (6 Bft) 100,00 %
09.02.2019 11:04 9,2 C 10,6 C 8,3 C 77 % 1002,7 hPa 0,0 l/m 2 min 0 min 249 W/m 45,1 km/h (6 Bft) 100,00 %
09.02.2019 11:06 9,2 C 10,0 C 8,3 C 77 % 1002,8 hPa 0,0 l/m 0 min 0 min 148 W/m 32,2 km/h (5 Bft) 100,00 %
09.02.2019 11:08 9,2 C 10,6 C 8,9 C 77 % 1002,9 hPa 0,0 l/m 2 min 0 min 223 W/m 41,8 km/h (6 Bft) 100,00 %
09.02.2019 11:10 9,2 C 10,0 C 8,9 C 77 % 1003,0 hPa 0,0 l/m 2 min 0 min 179 W/m 45,1 km/h (6 Bft) 100,00 %
09.02.2019 11:12 9,2 C 9,4 C 8,3 C 76 % 1002,8 hPa 0,0 l/m 0 min 0 min 121 W/m 35,4 km/h (5 Bft) 97,92 %
09.02.2019 11:14 9,2 C 8,9 C 8,3 C 76 % 1002,9 hPa 0,0 l/m 0 min 0 min 122 W/m 48,3 km/h (6 Bft) 97,87 %
09.02.2019 11:16 9,2 C 8,9 C 8,3 C 76 % 1003,0 hPa 0,0 l/m 0 min 0 min 106 W/m 41,8 km/h (6 Bft) 97,83 %
09.02.2019 11:18 9,2 C 8,9 C 8,3 C 76 % 1002,9 hPa 0,0 l/m 0 min 0 min 74 W/m 35,4 km/h (5 Bft) 97,67 %
09.02.2019 11:20 9,2 C 8,3 C 7,8 C 77 % 1003,1 hPa 0,0 l/m 0 min 2 min 96 W/m 29,0 km/h (5 Bft) 97,96 %
09.02.2019 11:22 9,1 C 8,3 C 7,8 C 77 % 1002,9 hPa 0,0 l/m 0 min 2 min 122 W/m 48,3 km/h (6 Bft) 95,83 %
09.02.2019 11:24 9,1 C 8,9 C 8,3 C 77 % 1002,9 hPa 0,0 l/m 0 min 2 min 178 W/m 29,0 km/h (5 Bft) 93,75 %
09.02.2019 11:26 9,0 C 9,4 C 8,3 C 78 % 1002,9 hPa 0,0 l/m 2 min 2 min 211 W/m 35,4 km/h (5 Bft) 93,62 %
09.02.2019 11:28 9,1 C 10,0 C 8,3 C 77 % 1003,0 hPa 0,0 l/m 2 min 2 min 298 W/m 41,8 km/h (6 Bft) 97,83 %
09.02.2019 11:30 9,2 C 11,7 C 8,9 C 78 % 1003,0 hPa 0,0 l/m 2 min 2 min 253 W/m 32,2 km/h (5 Bft) 97,67 %
09.02.2019 11:32 9,3 C 10,6 C 8,9 C 77 % 1003,1 hPa 0,0 l/m 2 min 0 min 225 W/m 29,0 km/h (5 Bft) 96,00 %
09.02.2019 11:34 9,3 C 10,6 C 8,9 C 77 % 1003,2 hPa 0,0 l/m 0 min 0 min 141 W/m 19,3 km/h (3 Bft) 97,92 %
09.02.2019 11:36 9,3 C 10,0 C 8,9 C 77 % 1003,4 hPa 0,0 l/m 0 min 0 min 124 W/m 35,4 km/h (5 Bft) 95,74 %
09.02.2019 11:38 9,3 C 8,9 C 8,3 C 76 % 1003,1 hPa 0,0 l/m 0 min 0 min 92 W/m 54,7 km/h (7 Bft) 97,87 %
09.02.2019 11:40 9,2 C 8,3 C 7,2 C 76 % 1003,5 hPa 0,0 l/m 0 min 2 min 114 W/m 41,8 km/h (6 Bft) 97,83 %
09.02.2019 11:42 9,2 C 8,3 C 7,2 C 78 % 1003,1 hPa 0,0 l/m 0 min 2 min 142 W/m 35,4 km/h (5 Bft) 97,67 %
09.02.2019 11:44 9,1 C 10,0 C 7,8 C 78 % 1003,3 hPa 0,0 l/m 0 min 2 min 155 W/m 32,2 km/h (5 Bft) 97,96 %
09.02.2019 11:46 9,2 C 11,7 C 8,3 C 79 % 1003,4 hPa 0,0 l/m 2 min 2 min 451 W/m 22,5 km/h (4 Bft) 97,92 %
09.02.2019 11:48 9,3 C 10,0 C 8,3 C 78 % 1003,3 hPa 0,0 l/m 2 min 2 min 356 W/m 45,1 km/h (6 Bft) 97,92 %
09.02.2019 11:50 9,3 C 9,4 C 8,3 C 77 % 1003,1 hPa 0,0 l/m 0 min 0 min 86 W/m 35,4 km/h (5 Bft) 100,00 %
09.02.2019 11:52 9,2 C 8,9 C 8,3 C 77 % 1003,2 hPa 0,0 l/m 0 min 0 min 78 W/m 38,6 km/h (5 Bft) 97,87 %
09.02.2019 11:54 9,2 C 8,9 C 8,3 C 77 % 1003,2 hPa 0,0 l/m 0 min 0 min 75 W/m 57,9 km/h (7 Bft) 97,67 %
09.02.2019 11:56 9,2 C 8,9 C 8,3 C 76 % 1003,2 hPa 0,0 l/m 0 min 0 min 94 W/m 29,0 km/h (5 Bft) 97,92 %
09.02.2019 11:58 9,2 C 8,9 C 8,3 C 77 % 1003,3 hPa 0,0 l/m 0 min 0 min 114 W/m 35,4 km/h (5 Bft) 98,00 %
09.02.2019 12:00 9,2 C 8,9 C 8,3 C 76 % 1003,3 hPa 0,0 l/m 0 min 0 min 121 W/m 41,8 km/h (6 Bft) 93,62 %
09.02.2019 12:02 9,2 C 8,9 C 8,9 C 76 % 1003,3 hPa 0,0 l/m 0 min 2 min 142 W/m 38,6 km/h (5 Bft) 100,00 %
09.02.2019 12:04 9,3 C 9,4 C 8,9 C 76 % 1003,2 hPa 0,0 l/m 0 min 0 min 167 W/m 38,6 km/h (5 Bft) 97,87 %
09.02.2019 12:08 9,3 C 9,4 C 8,9 C 77 % 1003,3 hPa 0,0 l/m 0 min 0 min 152 W/m 25,7 km/h (4 Bft) 95,74 %
09.02.2019 12:10 9,3 C 9,4 C 8,9 C 76 % 1003,2 hPa 0,0 l/m 0 min 0 min 166 W/m 29,0 km/h (5 Bft) 97,87 %
09.02.2019 12:12 9,4 C 10,0 C 8,9 C 76 % 1003,3 hPa 0,0 l/m 2 min 0 min 208 W/m 32,2 km/h (5 Bft) 97,87 %
09.02.2019 12:14 9,5 C 10,6 C 8,9 C 76 % 1003,3 hPa 0,0 l/m 2 min 0 min 222 W/m 29,0 km/h (5 Bft) 95,65 %
09.02.2019 12:16 9,6 C 10,0 C 8,9 C 76 % 1003,2 hPa 0,0 l/m 0 min 0 min 182 W/m 29,0 km/h (5 Bft) 97,67 %
09.02.2019 12:18 9,6 C 10,0 C 9,4 C 76 % 1003,2 hPa 0,0 l/m 2 min 0 min 204 W/m 67,6 km/h (8 Bft) 97,96 %
09.02.2019 12:20 9,6 C 11,7 C 9,4 C 75 % 1003,1 hPa 0,0 l/m 2 min 0 min 223 W/m 51,5 km/h (7 Bft) 95,65 %
09.02.2019 12:22 9,7 C 10,6 C 9,4 C 75 % 1003,4 hPa 0,0 l/m 2 min 0 min 218 W/m 41,8 km/h (6 Bft) 98,00 %
09.02.2019 12:24 9,7 C 10,6 C 9,4 C 76 % 1003,3 hPa 0,0 l/m 0 min 0 min 199 W/m 19,3 km/h (3 Bft) 97,87 %
09.02.2019 12:26 9,7 C 10,6 C 9,4 C 76 % 1003,3 hPa 0,0 l/m 0 min 0 min 171 W/m 25,7 km/h (4 Bft) 95,65 %
09.02.2019 12:28 9,6 C 10,6 C 8,9 C 75 % 1003,2 hPa 0,0 l/m 0 min 0 min 115 W/m 41,8 km/h (6 Bft) 93,62 %
09.02.2019 12:30 9,7 C 12,2 C 9,4 C 76 % 1003,3 hPa 0,0 l/m 0 min 0 min 120 W/m 35,4 km/h (5 Bft) 97,87 %
09.02.2019 12:32 9,7 C 11,7 C 9,4 C 75 % 1003,2 hPa 0,0 l/m 0 min 0 min 126 W/m 48,3 km/h (6 Bft) 95,74 %
09.02.2019 12:34 9,8 C 11,1 C 9,4 C 75 % 1003,1 hPa 0,0 l/m 2 min 0 min 265 W/m 32,2 km/h (5 Bft) 97,56 %
09.02.2019 12:36 9,7 C 10,6 C 8,9 C 75 % 1003,1 hPa 0,0 l/m 0 min 0 min 173 W/m 41,8 km/h (6 Bft) 95,74 %
09.02.2019 12:38 9,7 C 10,0 C 8,9 C 75 % 1003,2 hPa 0,0 l/m 0 min 0 min 146 W/m 51,5 km/h (7 Bft) 97,96 %
09.02.2019 12:40 9,7 C 10,6 C 9,4 C 75 % 1003,0 hPa 0,0 l/m 2 min 0 min 234 W/m 29,0 km/h (5 Bft) 95,92 %
09.02.2019 12:42 9,7 C 10,0 C 9,4 C 74 % 1003,0 hPa 0,0 l/m 2 min 0 min 223 W/m 57,9 km/h (7 Bft) 97,96 %
09.02.2019 12:44 9,7 C 11,1 C 10,0 C 75 % 1003,0 hPa 0,0 l/m 0 min 0 min 175 W/m 45,1 km/h (6 Bft) 93,62 %
09.02.2019 12:46 9,8 C 12,2 C 10,6 C 75 % 1003,1 hPa 0,0 l/m 0 min 0 min 199 W/m 32,2 km/h (5 Bft) 97,87 %
09.02.2019 12:48 9,9 C 11,7 C 10,0 C 75 % 1003,0 hPa 0,0 l/m 0 min 0 min 199 W/m 38,6 km/h (5 Bft) 100,00 %
09.02.2019 12:50 9,9 C 11,1 C 10,0 C 75 % 1003,2 hPa 0,0 l/m 2 min 0 min 214 W/m 32,2 km/h (5 Bft) 97,87 %
09.02.2019 12:52 10,1 C 12,2 C 11,1 C 75 % 1003,1 hPa 0,0 l/m 2 min 0 min 216 W/m 29,0 km/h (5 Bft) 98,00 %
09.02.2019 12:54 10,1 C 11,7 C 10,6 C 74 % 1003,1 hPa 0,0 l/m 2 min 0 min 216 W/m 51,5 km/h (7 Bft) 97,92 %
09.02.2019 12:56 10,1 C 11,7 C 10,0 C 74 % 1003,2 hPa 0,0 l/m 2 min 0 min 224 W/m 35,4 km/h (5 Bft) 95,74 %
09.02.2019 12:58 10,0 C 10,6 C 9,4 C 74 % 1003,0 hPa 0,0 l/m 0 min 0 min 161 W/m 51,5 km/h (7 Bft) 97,92 %
09.02.2019 13:00 9,9 C 10,0 C 9,4 C 75 % 1003,3 hPa 0,0 l/m 0 min 0 min 185 W/m 29,0 km/h (5 Bft) 97,87 %
09.02.2019 13:02 9,9 C 10,6 C 9,4 C 75 % 1003,1 hPa 0,0 l/m 2 min 2 min 241 W/m 57,9 km/h (7 Bft) 95,65 %
09.02.2019 13:04 9,9 C 11,7 C 9,4 C 75 % 1003,1 hPa 0,0 l/m 2 min 2 min 272 W/m 41,8 km/h (6 Bft) 97,87 %
09.02.2019 13:06 10,1 C 12,8 C 10,0 C 75 % 1003,4 hPa 0,0 l/m 2 min 0 min 292 W/m 67,6 km/h (8 Bft) 95,74 %
09.02.2019 13:08 10,2 C 13,3 C 10,6 C 75 % 1003,1 hPa 0,0 l/m 2 min 0 min 487 W/m 48,3 km/h (6 Bft) 97,87 %
09.02.2019 13:10 10,3 C 12,8 C 10,6 C 75 % 1003,1 hPa 0,0 l/m 2 min 0 min 452 W/m 32,2 km/h (5 Bft) 97,87 %
09.02.2019 13:12 10,3 C 11,7 C 10,0 C 74 % 1003,1 hPa 0,0 l/m 2 min 0 min 256 W/m 25,7 km/h (4 Bft) 97,83 %
09.02.2019 13:14 10,3 C 10,6 C 9,4 C 74 % 1003,1 hPa 0,0 l/m 2 min 2 min 261 W/m 38,6 km/h (5 Bft) 97,62 %
09.02.2019 13:16 10,2 C 9,4 C 9,4 C 75 % 1003,1 hPa 0,0 l/m 2 min 2 min 262 W/m 51,5 km/h (7 Bft) 97,96 %
09.02.2019 13:18 10,0 C 10,0 C 8,9 C 75 % 1003,2 hPa 0,0 l/m 2 min 2 min 242 W/m 54,7 km/h (7 Bft) 97,87 %
09.02.2019 13:20 9,8 C 10,0 C 8,9 C 75 % 1003,2 hPa 0,0 l/m 2 min 2 min 242 W/m 41,8 km/h (6 Bft) 97,92 %
09.02.2019 13:22 9,7 C 9,4 C 8,9 C 77 % 1003,1 hPa 0,0 l/m 0 min 0 min 196 W/m 35,4 km/h (5 Bft) 97,96 %
09.02.2019 13:24 9,6 C 9,4 C 8,9 C 77 % 1003,3 hPa 0,0 l/m 0 min 0 min 115 W/m 25,7 km/h (4 Bft) 97,83 %
09.02.2019 13:26 9,6 C 9,4 C 8,9 C 77 % 1003,4 hPa 0,0 l/m 0 min 0 min 69 W/m 25,7 km/h (4 Bft) 97,87 %
09.02.2019 13:28 9,4 C 7,8 C 7,2 C 78 % 1003,4 hPa 0,0 l/m 0 min 2 min 116 W/m 45,1 km/h (6 Bft) 97,62 %
09.02.2019 13:30 9,2 C 7,8 C 7,2 C 80 % 1003,4 hPa 0,0 l/m 0 min 2 min 193 W/m 38,6 km/h (5 Bft) 97,92 %
09.02.2019 13:32 9,1 C 8,3 C 7,2 C 80 % 1003,6 hPa 0,0 l/m 0 min 2 min 190 W/m 41,8 km/h (6 Bft) 98,00 %
09.02.2019 13:34 9,0 C 8,9 C 7,2 C 80 % 1003,4 hPa 0,0 l/m 2 min 2 min 209 W/m 48,3 km/h (6 Bft) 95,74 %
09.02.2019 13:36 8,9 C 8,9 C 7,8 C 81 % 1003,4 hPa 0,0 l/m 2 min 2 min 206 W/m 29,0 km/h (5 Bft) 97,87 %
09.02.2019 13:38 8,9 C 8,9 C 7,8 C 81 % 1003,2 hPa 0,0 l/m 0 min 2 min 187 W/m 51,5 km/h (7 Bft) 97,87 %
09.02.2019 13:40 8,9 C 9,4 C 7,8 C 81 % 1003,5 hPa 0,0 l/m 0 min 0 min 191 W/m 35,4 km/h (5 Bft) 97,87 %
09.02.2019 13:42 9,0 C 9,4 C 8,3 C 81 % 1003,3 hPa 0,0 l/m 2 min 2 min 200 W/m 25,7 km/h (4 Bft) 97,87 %
09.02.2019 13:44 9,0 C 9,4 C 8,3 C 81 % 1003,2 hPa 0,0 l/m 2 min 0 min 208 W/m 22,5 km/h (4 Bft) 97,87 %
09.02.2019 13:46 9,1 C 9,4 C 8,9 C 81 % 1003,3 hPa 0,0 l/m 2 min 0 min 199 W/m 32,2 km/h (5 Bft) 97,83 %
09.02.2019 13:48 9,1 C 9,4 C 8,3 C 81 % 1003,3 hPa 0,0 l/m 0 min 0 min 164 W/m 41,8 km/h (6 Bft) 100,00 %
09.02.2019 13:50 9,2 C 9,4 C 8,3 C 81 % 1003,2 hPa 0,0 l/m 0 min 0 min 145 W/m 25,7 km/h (4 Bft) 100,00 %
09.02.2019 13:52 9,2 C 9,4 C 8,3 C 81 % 1003,3 hPa 0,0 l/m 0 min 0 min 135 W/m 16,1 km/h (3 Bft) 100,00 %
09.02.2019 13:54 9,2 C 9,4 C 8,3 C 80 % 1003,3 hPa 0,0 l/m 0 min 0 min 113 W/m 51,5 km/h (7 Bft) 100,00 %
09.02.2019 13:56 9,2 C 9,4 C 8,3 C 79 % 1003,2 hPa 0,0 l/m 0 min 0 min 122 W/m 29,0 km/h (5 Bft) 97,87 %
09.02.2019 13:58 9,3 C 9,4 C 8,9 C 79 % 1003,2 hPa 0,0 l/m 0 min 0 min 153 W/m 32,2 km/h (5 Bft) 100,00 %
09.02.2019 14:00 9,4 C 10,0 C 8,9 C 78 % 1003,3 hPa 0,0 l/m 0 min 0 min 182 W/m 38,6 km/h (5 Bft) 98,04 %
09.02.2019 14:02 9,5 C 10,0 C 8,9 C 77 % 1003,3 hPa 0,0 l/m 0 min 0 min 178 W/m 48,3 km/h (6 Bft) 100,00 %
09.02.2019 14:04 9,6 C 10,0 C 8,9 C 77 % 1003,3 hPa 0,0 l/m 0 min 0 min 137 W/m 41,8 km/h (6 Bft) 100,00 %
09.02.2019 14:06 9,6 C 10,0 C 8,9 C 77 % 1003,3 hPa 0,0 l/m 0 min 0 min 140 W/m 41,8 km/h (6 Bft) 100,00 %
09.02.2019 14:08 9,6 C 10,0 C 8,9 C 77 % 1003,1 hPa 0,0 l/m 0 min 0 min 167 W/m 32,2 km/h (5 Bft) 100,00 %
09.02.2019 14:10 9,7 C 10,0 C 8,9 C 77 % 1003,1 hPa 0,0 l/m 2 min 0 min 194 W/m 29,0 km/h (5 Bft) 100,00 %
09.02.2019 14:12 9,8 C 10,0 C 9,4 C 76 % 1003,2 hPa 0,0 l/m 0 min 0 min 176 W/m 32,2 km/h (5 Bft) 97,87 %
09.02.2019 14:14 9,9 C 10,0 C 9,4 C 75 % 1003,2 hPa 0,0 l/m 0 min 0 min 166 W/m 41,8 km/h (6 Bft) 97,87 %
09.02.2019 14:16 9,9 C 10,6 C 9,4 C 74 % 1003,3 hPa 0,0 l/m 0 min 0 min 179 W/m 45,1 km/h (6 Bft) 97,62 %
09.02.2019 14:18 10,0 C 10,6 C 9,4 C 73 % 1003,1 hPa 0,0 l/m 2 min 0 min 207 W/m 38,6 km/h (5 Bft) 95,92 %
09.02.2019 14:20 10,1 C 10,0 C 9,4 C 73 % 1003,2 hPa 0,0 l/m 0 min 0 min 166 W/m 51,5 km/h (7 Bft) 97,96 %
09.02.2019 14:22 10,1 C 10,0 C 9,4 C 73 % 1003,1 hPa 0,0 l/m 0 min 0 min 155 W/m 35,4 km/h (5 Bft) 97,87 %
09.02.2019 14:24 10,1 C 10,6 C 9,4 C 73 % 1003,1 hPa 0,0 l/m 0 min 0 min 152 W/m 32,2 km/h (5 Bft) 97,87 %
09.02.2019 14:26 10,2 C 10,6 C 9,4 C 73 % 1003,2 hPa 0,0 l/m 0 min 0 min 160 W/m 32,2 km/h (5 Bft) 97,87 %
09.02.2019 14:28 10,2 C 10,6 C 9,4 C 72 % 1003,3 hPa 0,0 l/m 0 min 0 min 166 W/m 51,5 km/h (7 Bft) 95,24 %
09.02.2019 14:30 10,2 C 10,6 C 9,4 C 72 % 1003,4 hPa 0,0 l/m 0 min 0 min 167 W/m 54,7 km/h (7 Bft) 97,96 %
09.02.2019 14:32 10,2 C 10,6 C 9,4 C 72 % 1003,2 hPa 0,0 l/m 0 min 0 min 158 W/m 57,9 km/h (7 Bft) 98,00 %
09.02.2019 14:34 10,2 C 10,6 C 9,4 C 73 % 1003,4 hPa 0,0 l/m 0 min 0 min 156 W/m 29,0 km/h (5 Bft) 95,65 %
09.02.2019 14:36 10,2 C 10,6 C 9,4 C 73 % 1003,3 hPa 0,0 l/m 2 min 0 min 196 W/m 22,5 km/h (4 Bft) 95,74 %
09.02.2019 14:38 10,2 C 10,6 C 9,4 C 73 % 1003,2 hPa 0,0 l/m 0 min 0 min 164 W/m 35,4 km/h (5 Bft) 95,83 %
09.02.2019 14:40 10,2 C 10,0 C 9,4 C 72 % 1003,3 hPa 0,0 l/m 0 min 0 min 126 W/m 35,4 km/h (5 Bft) 93,62 %
09.02.2019 14:42 10,2 C 10,0 C 9,4 C 71 % 1003,3 hPa 0,0 l/m 0 min 0 min 108 W/m 38,6 km/h (5 Bft) 95,24 %
09.02.2019 14:44 10,2 C 8,9 C 8,3 C 72 % 1003,6 hPa 0,0 l/m 0 min 2 min 85 W/m 45,1 km/h (6 Bft) 93,88 %
09.02.2019 14:46 10,1 C 7,2 C 6,7 C 75 % 1003,7 hPa 0,0 l/m 0 min 2 min 85 W/m 38,6 km/h (5 Bft) 95,92 %
09.02.2019 14:48 9,7 C 6,7 C 6,1 C 77 % 1003,7 hPa 0,0 l/m 0 min 2 min 104 W/m 45,1 km/h (6 Bft) 95,74 %
09.02.2019 14:50 9,4 C 6,7 C 6,1 C 79 % 1003,7 hPa 0,0 l/m 0 min 2 min 125 W/m 29,0 km/h (5 Bft) 93,62 %
09.02.2019 14:52 9,1 C 6,7 C 6,1 C 80 % 1003,7 hPa 0,0 l/m 0 min 2 min 143 W/m 25,7 km/h (4 Bft) 95,74 %
09.02.2019 14:54 8,9 C 7,2 C 6,7 C 81 % 1003,7 hPa 0,0 l/m 0 min 2 min 132 W/m 22,5 km/h (4 Bft) 97,56 %
09.02.2019 14:56 8,8 C 7,2 C 6,7 C 82 % 1003,7 hPa 0,0 l/m 0 min 2 min 103 W/m 38,6 km/h (5 Bft) 93,88 %
09.02.2019 14:58 8,8 C 7,2 C 6,7 C 82 % 1003,7 hPa 0,0 l/m 0 min 2 min 74 W/m 19,3 km/h (3 Bft) 96,00 %
09.02.2019 15:00 8,8 C 7,2 C 6,7 C 82 % 1003,8 hPa 0,0 l/m 0 min 2 min 52 W/m 16,1 km/h (3 Bft) 95,74 %
09.02.2019 15:02 8,8 C 6,7 C 6,1 C 82 % 1004,0 hPa 0,2 l/m 0 min 2 min 29 W/m 54,7 km/h (7 Bft) 93,62 %
09.02.2019 15:04 8,7 C 6,1 C 5,6 C 82 % 1004,3 hPa 0,0 l/m 0 min 2 min 17 W/m 54,7 km/h (7 Bft) 95,74 %
09.02.2019 15:06 8,7 C 5,6 C 5,6 C 82 % 1004,5 hPa 0,0 l/m 0 min 2 min 14 W/m 32,2 km/h (5 Bft) 95,74 %
09.02.2019 15:08 8,5 C 5,6 C 5,0 C 83 % 1004,5 hPa 0,2 l/m 0 min 2 min 13 W/m 38,6 km/h (5 Bft) 93,48 %
09.02.2019 15:10 8,3 C 5,6 C 5,0 C 83 % 1004,5 hPa 0,2 l/m 0 min 2 min 31 W/m 19,3 km/h (3 Bft) 95,24 %
09.02.2019 15:12 8,2 C 5,6 C 5,0 C 84 % 1004,7 hPa 0,2 l/m 0 min 2 min 32 W/m 25,7 km/h (4 Bft) 97,96 %
09.02.2019 15:14 8,1 C 5,6 C 5,0 C 85 % 1004,8 hPa 0,0 l/m 0 min 2 min 39 W/m 22,5 km/h (4 Bft) 95,83 %
09.02.2019 15:16 7,9 C 5,6 C 5,0 C 85 % 1004,9 hPa 0,0 l/m 0 min 2 min 30 W/m 29,0 km/h (5 Bft) 97,96 %
09.02.2019 15:18 7,8 C 5,6 C 5,0 C 86 % 1004,9 hPa 0,2 l/m 0 min 2 min 34 W/m 16,1 km/h (3 Bft) 95,74 %
09.02.2019 15:20 7,7 C 5,6 C 5,0 C 87 % 1004,7 hPa 0,0 l/m 0 min 2 min 78 W/m 16,1 km/h (3 Bft) 93,48 %
09.02.2019 15:22 7,6 C 6,1 C 5,0 C 87 % 1004,3 hPa 0,0 l/m 2 min 2 min 154 W/m 22,5 km/h (4 Bft) 97,87 %
09.02.2019 15:24 7,5 C 7,2 C 5,6 C 88 % 1004,4 hPa 0,0 l/m 2 min 0 min 236 W/m 16,1 km/h (3 Bft) 100,00 %
09.02.2019 15:26 7,4 C 7,2 C 5,6 C 88 % 1004,4 hPa 0,0 l/m 2 min 0 min 227 W/m 16,1 km/h (3 Bft) 100,00 %
09.02.2019 15:28 7,4 C 7,2 C 5,6 C 89 % 1004,2 hPa 0,0 l/m 0 min 0 min 134 W/m 19,3 km/h (3 Bft) 95,92 %
09.02.2019 15:30 7,4 C 6,7 C 5,6 C 89 % 1004,3 hPa 0,0 l/m 0 min 0 min 119 W/m 12,9 km/h (3 Bft) 97,87 %
09.02.2019 15:32 7,4 C 6,7 C 5,6 C 90 % 1004,3 hPa 0,0 l/m 0 min 0 min 112 W/m 25,7 km/h (4 Bft) 100,00 %
09.02.2019 15:34 7,4 C 6,7 C 5,6 C 90 % 1004,3 hPa 0,0 l/m 0 min 0 min 120 W/m 16,1 km/h (3 Bft) 100,00 %
09.02.2019 15:36 7,4 C 6,7 C 6,1 C 90 % 1004,3 hPa 0,0 l/m 0 min 0 min 103 W/m 9,7 km/h (2 Bft) 97,87 %
09.02.2019 15:38 7,4 C 6,7 C 6,1 C 90 % 1004,4 hPa 0,0 l/m 0 min 0 min 104 W/m 19,3 km/h (3 Bft) 100,00 %
09.02.2019 15:40 7,4 C 6,7 C 6,1 C 90 % 1004,4 hPa 0,0 l/m 0 min 0 min 105 W/m 29,0 km/h (5 Bft) 97,87 %
09.02.2019 15:42 7,4 C 6,7 C 6,1 C 90 % 1004,4 hPa 0,0 l/m 0 min 0 min 105 W/m 19,3 km/h (3 Bft) 100,00 %
09.02.2019 15:44 7,4 C 6,7 C 6,1 C 90 % 1004,4 hPa 0,0 l/m 0 min 0 min 106 W/m 19,3 km/h (3 Bft) 95,92 %
09.02.2019 15:46 7,5 C 7,2 C 6,1 C 91 % 1004,5 hPa 0,0 l/m 2 min 0 min 161 W/m 19,3 km/h (3 Bft) 97,87 %
09.02.2019 15:48 7,5 C 7,2 C 6,1 C 91 % 1004,5 hPa 0,0 l/m 2 min 0 min 154 W/m 16,1 km/h (3 Bft) 97,96 %
09.02.2019 15:50 7,6 C 7,2 C 6,1 C 91 % 1004,5 hPa 0,0 l/m 2 min 0 min 137 W/m 9,7 km/h (2 Bft) 100,00 %
09.02.2019 15:52 7,6 C 7,2 C 6,1 C 91 % 1004,5 hPa 0,0 l/m 2 min 0 min 123 W/m 19,3 km/h (3 Bft) 97,87 %
09.02.2019 15:54 7,6 C 7,2 C 6,1 C 91 % 1004,5 hPa 0,0 l/m 0 min 0 min 110 W/m 32,2 km/h (5 Bft) 95,65 %
09.02.2019 15:56 7,7 C 7,2 C 6,1 C 91 % 1004,4 hPa 0,0 l/m 0 min 0 min 87 W/m 19,3 km/h (3 Bft) 97,67 %
09.02.2019 15:58 7,7 C 6,7 C 6,1 C 91 % 1004,5 hPa 0,0 l/m 0 min 0 min 72 W/m 19,3 km/h (3 Bft) 98,00 %
09.02.2019 16:00 7,7 C 6,7 C 6,1 C 90 % 1004,4 hPa 0,0 l/m 0 min 0 min 65 W/m 22,5 km/h (4 Bft) 97,87 %
09.02.2019 16:02 7,7 C 6,7 C 6,1 C 90 % 1004,4 hPa 0,0 l/m 0 min 0 min 63 W/m 16,1 km/h (3 Bft) 97,83 %
09.02.2019 16:04 7,7 C 6,7 C 6,1 C 90 % 1004,4 hPa 0,0 l/m 0 min 0 min 59 W/m 12,9 km/h (3 Bft) 97,87 %
09.02.2019 16:06 7,8 C 6,7 C 6,1 C 90 % 1004,3 hPa 0,0 l/m 0 min 0 min 57 W/m 19,3 km/h (3 Bft) 95,92 %
09.02.2019 16:08 7,8 C 6,7 C 6,1 C 89 % 1004,3 hPa 0,0 l/m 0 min 0 min 55 W/m 32,2 km/h (5 Bft) 97,87 %
09.02.2019 16:10 7,8 C 6,7 C 6,1 C 89 % 1004,4 hPa 0,0 l/m 0 min 0 min 53 W/m 19,3 km/h (3 Bft) 97,87 %
09.02.2019 16:12 7,8 C 6,7 C 6,1 C 88 % 1004,3 hPa 0,0 l/m 0 min 0 min 54 W/m 29,0 km/h (5 Bft) 97,67 %
09.02.2019 16:14 7,8 C 6,7 C 6,1 C 88 % 1004,3 hPa 0,0 l/m 0 min 0 min 54 W/m 35,4 km/h (5 Bft) 97,92 %
09.02.2019 16:16 7,9 C 6,7 C 6,1 C 88 % 1004,3 hPa 0,0 l/m 0 min 0 min 58 W/m 16,1 km/h (3 Bft) 97,87 %
09.02.2019 16:18 7,9 C 6,7 C 6,1 C 87 % 1004,3 hPa 0,0 l/m 0 min 0 min 61 W/m 25,7 km/h (4 Bft) 95,92 %
09.02.2019 16:20 7,9 C 6,7 C 6,1 C 87 % 1004,4 hPa 0,0 l/m 0 min 0 min 62 W/m 22,5 km/h (4 Bft) 97,87 %
09.02.2019 16:22 7,9 C 6,7 C 6,1 C 87 % 1004,3 hPa 0,0 l/m 0 min 0 min 62 W/m 38,6 km/h (5 Bft) 95,74 %
09.02.2019 16:24 8,0 C 6,7 C 6,1 C 86 % 1004,3 hPa 0,0 l/m 0 min 0 min 62 W/m 41,8 km/h (6 Bft) 97,87 %
09.02.2019 16:26 8,1 C 7,2 C 6,1 C 85 % 1004,4 hPa 0,0 l/m 0 min 0 min 62 W/m 29,0 km/h (5 Bft) 95,24 %
09.02.2019 16:28 8,1 C 7,2 C 6,1 C 84 % 1004,3 hPa 0,0 l/m 0 min 0 min 60 W/m 29,0 km/h (5 Bft) 97,96 %
09.02.2019 16:30 8,2 C 7,2 C 6,1 C 84 % 1004,5 hPa 0,0 l/m 0 min 0 min 62 W/m 45,1 km/h (6 Bft) 97,96 %
09.02.2019 16:32 8,2 C 7,2 C 6,1 C 83 % 1004,4 hPa 0,0 l/m 0 min 0 min 62 W/m 12,9 km/h (3 Bft) 97,87 %
09.02.2019 16:34 8,3 C 7,2 C 6,1 C 83 % 1004,5 hPa 0,0 l/m 0 min 0 min 62 W/m 41,8 km/h (6 Bft) 95,74 %
09.02.2019 16:36 8,3 C 7,2 C 6,1 C 83 % 1004,5 hPa 0,0 l/m 0 min 0 min 62 W/m 16,1 km/h (3 Bft) 97,87 %
09.02.2019 16:38 8,4 C 7,2 C 6,1 C 82 % 1004,5 hPa 0,0 l/m 0 min 0 min 61 W/m 32,2 km/h (5 Bft) 97,56 %
09.02.2019 16:40 8,4 C 7,2 C 6,1 C 82 % 1004,5 hPa 0,0 l/m 0 min 0 min 60 W/m 29,0 km/h (5 Bft) 95,92 %
09.02.2019 16:42 8,4 C 7,2 C 6,7 C 82 % 1004,6 hPa 0,0 l/m 0 min 0 min 55 W/m 35,4 km/h (5 Bft) 97,96 %
09.02.2019 16:44 8,5 C 7,2 C 6,7 C 81 % 1004,5 hPa 0,0 l/m 0 min 0 min 46 W/m 16,1 km/h (3 Bft) 95,83 %
09.02.2019 16:46 8,5 C 7,2 C 6,7 C 81 % 1004,6 hPa 0,0 l/m 0 min 0 min 37 W/m 22,5 km/h (4 Bft) 100,00 %
09.02.2019 16:48 8,6 C 7,2 C 6,7 C 81 % 1004,7 hPa 0,0 l/m 0 min 0 min 33 W/m 12,9 km/h (3 Bft) 100,00 %
09.02.2019 16:50 8,6 C 7,2 C 6,7 C 81 % 1004,6 hPa 0,0 l/m 0 min 0 min 35 W/m 19,3 km/h (3 Bft) 100,00 %
09.02.2019 16:52 8,6 C 7,2 C 6,7 C 81 % 1004,5 hPa 0,0 l/m 0 min 0 min 32 W/m 16,1 km/h (3 Bft) 100,00 %
09.02.2019 16:54 8,7 C 7,2 C 6,7 C 80 % 1004,6 hPa 0,0 l/m 0 min 0 min 33 W/m 12,9 km/h (3 Bft) 100,00 %
09.02.2019 16:56 8,7 C 7,2 C 6,7 C 81 % 1004,5 hPa 0,0 l/m 0 min 0 min 39 W/m 22,5 km/h (4 Bft) 100,00 %
09.02.2019 16:58 8,7 C 7,2 C 6,7 C 80 % 1004,7 hPa 0,0 l/m 0 min 0 min 34 W/m 35,4 km/h (5 Bft) 100,00 %
09.02.2019 17:00 8,8 C 7,2 C 6,7 C 79 % 1004,5 hPa 0,0 l/m 0 min 0 min 31 W/m 25,7 km/h (4 Bft) 100,00 %
09.02.2019 17:02 8,8 C 7,8 C 6,7 C 79 % 1004,6 hPa 0,0 l/m 0 min 0 min 29 W/m 32,2 km/h (5 Bft) 100,00 %
09.02.2019 17:04 8,8 C 7,8 C 6,7 C 79 % 1004,7 hPa 0,0 l/m 0 min 0 min 27 W/m 9,7 km/h (2 Bft) 100,00 %
09.02.2019 17:06 8,8 C 8,3 C 6,7 C 79 % 1004,6 hPa 0,0 l/m 0 min 0 min 24 W/m 25,7 km/h (4 Bft) 100,00 %
09.02.2019 17:08 8,8 C 8,3 C 6,7 C 78 % 1004,7 hPa 0,0 l/m 0 min 0 min 22 W/m 35,4 km/h (5 Bft) 100,00 %
09.02.2019 17:10 8,9 C 8,3 C 6,7 C 78 % 1004,7 hPa 0,0 l/m 0 min 0 min 20 W/m 12,9 km/h (3 Bft) 100,00 %
09.02.2019 17:12 8,9 C 8,3 C 6,7 C 78 % 1004,7 hPa 0,0 l/m 0 min 0 min 19 W/m 19,3 km/h (3 Bft) 100,00 %
09.02.2019 17:14 8,9 C 8,3 C 6,7 C 78 % 1004,7 hPa 0,0 l/m 0 min 0 min 18 W/m 25,7 km/h (4 Bft) 97,96 %
09.02.2019 17:16 8,9 C 8,3 C 6,7 C 78 % 1004,8 hPa 0,0 l/m 0 min 0 min 17 W/m 25,7 km/h (4 Bft) 100,00 %
09.02.2019 17:18 8,9 C 8,3 C 6,7 C 78 % 1004,8 hPa 0,0 l/m 0 min 0 min 14 W/m 9,7 km/h (2 Bft) 100,00 %
09.02.2019 17:20 8,9 C 8,3 C 6,7 C 78 % 1004,7 hPa 0,0 l/m 0 min 0 min 13 W/m 22,5 km/h (4 Bft) 95,74 %
09.02.2019 17:22 8,9 C 8,3 C 7,2 C 78 % 1004,7 hPa 0,0 l/m 0 min 0 min 11 W/m 12,9 km/h (3 Bft) 97,87 %
09.02.2019 17:24 8,9 C 8,3 C 7,2 C 78 % 1004,8 hPa 0,0 l/m 0 min 0 min 10 W/m 12,9 km/h (3 Bft) 97,87 %
09.02.2019 17:26 8,9 C 8,3 C 7,2 C 78 % 1004,8 hPa 0,0 l/m 0 min 0 min 9 W/m 19,3 km/h (3 Bft) 95,24 %
09.02.2019 17:28 8,8 C 8,3 C 7,2 C 78 % 1004,8 hPa 0,0 l/m 0 min 0 min 8 W/m 12,9 km/h (3 Bft) 97,87 %
09.02.2019 17:30 8,8 C 8,3 C 7,2 C 78 % 1004,9 hPa 0,0 l/m 0 min 0 min 5 W/m 16,1 km/h (3 Bft) 95,92 %
09.02.2019 17:32 8,8 C 8,3 C 7,2 C 78 % 1004,9 hPa 0,0 l/m 0 min 0 min 5 W/m 25,7 km/h (4 Bft) 97,87 %
09.02.2019 17:34 8,8 C 8,3 C 7,2 C 78 % 1004,9 hPa 0,0 l/m 0 min 0 min 1 W/m 16,1 km/h (3 Bft) 97,92 %
09.02.2019 17:36 8,8 C 8,3 C 7,2 C 78 % 1004,9 hPa 0,0 l/m 0 min 0 min 0 W/m 22,5 km/h (4 Bft) 97,87 %
09.02.2019 17:38 8,8 C 8,3 C 7,2 C 78 % 1005,0 hPa 0,0 l/m 0 min 0 min 0 W/m 22,5 km/h (4 Bft) 93,75 %
09.02.2019 17:40 8,8 C 7,8 C 7,2 C 78 % 1005,2 hPa 0,0 l/m 0 min 2 min 0 W/m 25,7 km/h (4 Bft) 93,48 %
09.02.2019 17:42 8,8 C 7,8 C 6,7 C 79 % 1005,2 hPa 0,0 l/m 0 min 2 min 0 W/m 25,7 km/h (4 Bft) 95,24 %
09.02.2019 17:44 8,8 C 7,8 C 6,7 C 79 % 1005,2 hPa 0,0 l/m 0 min 2 min 0 W/m 3,2 km/h (1 Bft) 95,92 %
09.02.2019 17:46 8,8 C 7,8 C 6,1 C 79 % 1005,4 hPa 0,0 l/m 0 min 2 min 0 W/m 12,9 km/h (3 Bft) 95,65 %
09.02.2019 17:48 8,8 C 7,2 C 6,1 C 79 % 1005,5 hPa 0,0 l/m 0 min 2 min 0 W/m 22,5 km/h (4 Bft) 95,74 %
09.02.2019 17:50 8,8 C 7,2 C 6,1 C 80 % 1005,4 hPa 0,0 l/m 0 min 2 min 0 W/m 35,4 km/h (5 Bft) 95,92 %
09.02.2019 17:52 8,7 C 7,2 C 6,1 C 80 % 1005,4 hPa 0,0 l/m 0 min 2 min 0 W/m 22,5 km/h (4 Bft) 93,75 %
09.02.2019 17:54 8,7 C 7,2 C 6,1 C 80 % 1005,3 hPa 0,0 l/m 0 min 2 min 0 W/m 45,1 km/h (6 Bft) 93,62 %
09.02.2019 17:56 8,7 C 7,2 C 6,1 C 80 % 1005,5 hPa 0,0 l/m 0 min 2 min 0 W/m 25,7 km/h (4 Bft) 95,74 %
09.02.2019 17:58 8,7 C 7,2 C 6,1 C 81 % 1005,3 hPa 0,0 l/m 0 min 2 min 0 W/m 16,1 km/h (3 Bft) 93,62 %
09.02.2019 18:00 8,6 C 7,2 C 6,1 C 80 % 1005,4 hPa 0,0 l/m 0 min 2 min 0 W/m 9,7 km/h (2 Bft) 93,62 %
09.02.2019 18:02 8,6 C 7,2 C 6,1 C 81 % 1005,4 hPa 0,0 l/m 0 min 2 min 0 W/m 22,5 km/h (4 Bft) 95,24 %
09.02.2019 18:04 8,5 C 7,2 C 6,7 C 81 % 1005,4 hPa 0,0 l/m 0 min 2 min 0 W/m 19,3 km/h (3 Bft) 95,74 %
09.02.2019 18:08 8,4 C 7,2 C 6,7 C 81 % 1005,4 hPa 0,0 l/m 0 min 4 min 0 W/m 16,1 km/h (3 Bft) 95,74 %
09.02.2019 18:10 8,4 C 7,2 C 6,7 C 81 % 1005,5 hPa 0,0 l/m 0 min 0 min 0 W/m 9,7 km/h (2 Bft) 95,65 %
09.02.2019 18:12 8,4 C 7,2 C 6,7 C 82 % 1005,4 hPa 0,0 l/m 0 min 0 min 0 W/m 3,2 km/h (1 Bft) 95,92 %
09.02.2019 18:14 8,4 C 7,2 C 6,7 C 82 % 1005,5 hPa 0,0 l/m 0 min 0 min 0 W/m 16,1 km/h (3 Bft) 97,96 %
09.02.2019 18:16 8,3 C 7,2 C 6,7 C 82 % 1005,4 hPa 0,0 l/m 0 min 0 min 0 W/m 6,4 km/h (2 Bft) 97,87 %
09.02.2019 18:18 8,3 C 7,2 C 6,7 C 82 % 1005,5 hPa 0,0 l/m 0 min 0 min 0 W/m 9,7 km/h (2 Bft) 93,62 %
09.02.2019 18:20 8,3 C 7,2 C 6,7 C 82 % 1005,4 hPa 0,0 l/m 0 min 0 min 0 W/m 22,5 km/h (4 Bft) 95,74 %
09.02.2019 18:22 8,2 C 7,2 C 6,7 C 82 % 1005,5 hPa 0,0 l/m 0 min 0 min 0 W/m 19,3 km/h (3 Bft) 95,24 %
09.02.2019 18:24 8,2 C 7,2 C 6,7 C 82 % 1005,5 hPa 0,0 l/m 0 min 0 min 0 W/m 12,9 km/h (3 Bft) 95,92 %
09.02.2019 18:26 8,2 C 7,8 C 6,7 C 82 % 1005,6 hPa 0,0 l/m 0 min 0 min 0 W/m 16,1 km/h (3 Bft) 95,92 %
09.02.2019 18:28 8,2 C 7,8 C 6,7 C 82 % 1005,6 hPa 0,0 l/m 0 min 0 min 0 W/m 16,1 km/h (3 Bft) 95,74 %
09.02.2019 18:30 8,2 C 7,8 C 6,7 C 82 % 1005,6 hPa 0,0 l/m 0 min 0 min 0 W/m 9,7 km/h (2 Bft) 93,62 %
09.02.2019 18:32 8,2 C 7,8 C 6,7 C 82 % 1005,6 hPa 0,0 l/m 0 min 0 min 0 W/m 16,1 km/h (3 Bft) 92,86 %
09.02.2019 18:34 8,2 C 7,8 C 6,7 C 82 % 1005,5 hPa 0,0 l/m 0 min 0 min 0 W/m 12,9 km/h (3 Bft) 91,67 %
09.02.2019 18:36 8,2 C 7,8 C 6,7 C 82 % 1005,5 hPa 0,0 l/m 0 min 0 min 0 W/m 19,3 km/h (3 Bft) 93,88 %
09.02.2019 18:38 8,2 C 7,8 C 6,7 C 82 % 1005,6 hPa 0,0 l/m 0 min 0 min 0 W/m 12,9 km/h (3 Bft) 97,14 %
09.02.2019 18:40 8,2 C 7,8 C 6,7 C 81 % 1005,7 hPa 0,0 l/m 0 min 0 min 0 W/m 16,1 km/h (3 Bft) 95,74 %
09.02.2019 18:42 8,2 C 7,8 C 6,7 C 81 % 1005,7 hPa 0,0 l/m 0 min 0 min 0 W/m 29,0 km/h (5 Bft) 93,88 %
09.02.2019 18:44 8,2 C 7,8 C 6,7 C 81 % 1005,6 hPa 0,0 l/m 0 min 0 min 0 W/m 12,9 km/h (3 Bft) 95,74 %
09.02.2019 18:46 8,2 C 7,8 C 6,7 C 81 % 1005,7 hPa 0,0 l/m 0 min 0 min 0 W/m 12,9 km/h (3 Bft) 97,87 %
09.02.2019 18:48 8,2 C 7,8 C 6,7 C 81 % 1005,7 hPa 0,0 l/m 0 min 0 min 0 W/m 12,9 km/h (3 Bft) 97,87 %
09.02.2019 18:50 8,2 C 7,8 C 6,7 C 80 % 1005,7 hPa 0,0 l/m 0 min 0 min 0 W/m 25,7 km/h (4 Bft) 97,62 %
09.02.2019 18:52 8,2 C 7,8 C 7,2 C 80 % 1005,7 hPa 0,0 l/m 0 min 0 min 0 W/m 25,7 km/h (4 Bft) 97,96 %
09.02.2019 18:54 8,2 C 7,8 C 6,7 C 80 % 1005,7 hPa 0,0 l/m 0 min 0 min 0 W/m 19,3 km/h (3 Bft) 95,92 %
09.02.2019 18:56 8,2 C 7,8 C 6,7 C 80 % 1005,7 hPa 0,0 l/m 0 min 0 min 0 W/m 12,9 km/h (3 Bft) 97,87 %
09.02.2019 18:58 8,2 C 7,8 C 6,7 C 80 % 1005,8 hPa 0,0 l/m 0 min 0 min 0 W/m 19,3 km/h (3 Bft) 97,87 %
09.02.2019 19:00 8,2 C 7,8 C 7,2 C 80 % 1005,7 hPa 0,0 l/m 0 min 0 min 0 W/m 19,3 km/h (3 Bft) 97,87 %
09.02.2019 19:02 8,3 C 7,8 C 7,2 C 80 % 1005,7 hPa 0,0 l/m 0 min 0 min 0 W/m 29,0 km/h (5 Bft) 97,62 %
09.02.2019 19:04 8,3 C 7,8 C 7,2 C 79 % 1005,7 hPa 0,0 l/m 0 min 0 min 0 W/m 16,1 km/h (3 Bft) 95,74 %
09.02.2019 19:06 8,3 C 7,8 C 7,2 C 79 % 1005,8 hPa 0,0 l/m 0 min 0 min 0 W/m 16,1 km/h (3 Bft) 95,16 %
09.02.2019 19:08 8,3 C 7,8 C 6,7 C 80 % 1005,9 hPa 0,0 l/m 0 min 0 min 0 W/m 9,7 km/h (2 Bft) 97,22 %
09.02.2019 19:10 8,3 C 7,8 C 6,7 C 80 % 1005,8 hPa 0,0 l/m 0 min 0 min 0 W/m 12,9 km/h (3 Bft) 95,74 %
09.02.2019 19:12 8,3 C 7,8 C 6,7 C 80 % 1005,8 hPa 0,0 l/m 0 min 0 min 0 W/m 9,7 km/h (2 Bft) 97,87 %
09.02.2019 19:14 8,3 C 7,8 C 6,7 C 80 % 1005,9 hPa 0,0 l/m 0 min 0 min 0 W/m 16,1 km/h (3 Bft) 100,00 %
09.02.2019 19:16 8,3 C 7,8 C 6,7 C 80 % 1005,9 hPa 0,0 l/m 0 min 0 min 0 W/m 32,2 km/h (5 Bft) 100,00 %
09.02.2019 19:18 8,3 C 7,8 C 6,7 C 80 % 1005,9 hPa 0,0 l/m 0 min 0 min 0 W/m 22,5 km/h (4 Bft) 100,00 %
09.02.2019 19:20 8,3 C 7,8 C 6,7 C 80 % 1005,9 hPa 0,0 l/m 0 min 0 min 0 W/m 32,2 km/h (5 Bft) 100,00 %
09.02.2019 19:22 8,2 C 7,8 C 6,7 C 80 % 1005,8 hPa 0,0 l/m 0 min 0 min 0 W/m 19,3 km/h (3 Bft) 100,00 %
09.02.2019 19:24 8,2 C 7,8 C 6,7 C 80 % 1005,9 hPa 0,0 l/m 0 min 0 min 0 W/m 22,5 km/h (4 Bft) 100,00 %
09.02.2019 19:26 8,2 C 7,8 C 6,7 C 80 % 1005,8 hPa 0,0 l/m 0 min 0 min 0 W/m 12,9 km/h (3 Bft) 97,87 %
09.02.2019 19:28 8,2 C 7,8 C 6,7 C 81 % 1005,8 hPa 0,0 l/m 0 min 0 min 0 W/m 35,4 km/h (5 Bft) 100,00 %
09.02.2019 19:30 8,2 C 7,8 C 6,7 C 81 % 1005,9 hPa 0,0 l/m 0 min 2 min 0 W/m 16,1 km/h (3 Bft) 100,00 %
09.02.2019 19:32 8,2 C 7,8 C 6,7 C 81 % 1005,8 hPa 0,0 l/m 0 min 0 min 0 W/m 25,7 km/h (4 Bft) 98,00 %
09.02.2019 19:34 8,3 C 7,8 C 6,7 C 81 % 1005,9 hPa 0,0 l/m 0 min 0 min 0 W/m 12,9 km/h (3 Bft) 97,87 %
09.02.2019 19:36 8,2 C 7,8 C 6,7 C 81 % 1006,0 hPa 0,0 l/m 0 min 0 min 0 W/m 25,7 km/h (4 Bft) 98,28 %
09.02.2019 19:38 8,3 C 7,8 C 6,7 C 81 % 1005,9 hPa 0,0 l/m 0 min 0 min 0 W/m 19,3 km/h (3 Bft) 100,00 %
09.02.2019 19:40 8,3 C 7,8 C 6,7 C 81 % 1006,0 hPa 0,0 l/m 0 min 0 min 0 W/m 22,5 km/h (4 Bft) 97,83 %
09.02.2019 19:42 8,2 C 7,8 C 6,7 C 81 % 1005,9 hPa 0,0 l/m 0 min 0 min 0 W/m 16,1 km/h (3 Bft) 100,00 %
09.02.2019 19:44 8,2 C 7,8 C 6,7 C 81 % 1006,0 hPa 0,0 l/m 0 min 0 min 0 W/m 25,7 km/h (4 Bft) 100,00 %
09.02.2019 19:46 8,2 C 7,8 C 6,7 C 81 % 1006,1 hPa 0,0 l/m 0 min 0 min 0 W/m 22,5 km/h (4 Bft) 95,83 %
09.02.2019 19:48 8,2 C 7,8 C 6,7 C 81 % 1006,0 hPa 0,0 l/m 0 min 0 min 0 W/m 16,1 km/h (3 Bft) 100,00 %
09.02.2019 19:50 8,2 C 7,8 C 6,7 C 81 % 1006,0 hPa 0,0 l/m 0 min 0 min 0 W/m 16,1 km/h (3 Bft) 100,00 %
09.02.2019 19:52 8,2 C 7,8 C 6,7 C 81 % 1006,0 hPa 0,0 l/m 0 min 0 min 0 W/m 22,5 km/h (4 Bft) 97,83 %
09.02.2019 19:54 8,2 C 7,8 C 6,7 C 81 % 1006,0 hPa 0,0 l/m 0 min 0 min 0 W/m 22,5 km/h (4 Bft) 100,00 %
09.02.2019 19:56 8,2 C 7,8 C 7,2 C 81 % 1006,2 hPa 0,0 l/m 0 min 0 min 0 W/m 16,1 km/h (3 Bft) 100,00 %
09.02.2019 19:58 8,3 C 7,2 C 7,2 C 81 % 1006,3 hPa 0,0 l/m 0 min 2 min 0 W/m 12,9 km/h (3 Bft) 100,00 %
09.02.2019 20:00 8,3 C 6,7 C 6,1 C 82 % 1006,3 hPa 0,0 l/m 0 min 2 min 0 W/m 19,3 km/h (3 Bft) 100,00 %
09.02.2019 20:02 8,3 C 6,1 C 5,6 C 82 % 1006,2 hPa 0,2 l/m 0 min 2 min 0 W/m 22,5 km/h (4 Bft) 97,96 %
09.02.2019 20:04 8,3 C 5,6 C 5,0 C 83 % 1006,2 hPa 0,0 l/m 0 min 2 min 0 W/m 16,1 km/h (3 Bft) 97,87 %
09.02.2019 20:06 8,2 C 5,6 C 5,0 C 83 % 1006,1 hPa 0,0 l/m 0 min 2 min 0 W/m 19,3 km/h (3 Bft) 100,00 %
09.02.2019 20:08 8,2 C 5,6 C 5,0 C 84 % 1006,1 hPa 0,0 l/m 0 min 2 min 0 W/m 9,7 km/h (2 Bft) 100,00 %
09.02.2019 20:10 8,1 C 5,6 C 5,0 C 84 % 1006,1 hPa 0,0 l/m 0 min 0 min 0 W/m 12,9 km/h (3 Bft) 100,00 %
09.02.2019 20:12 8,1 C 5,6 C 5,0 C 84 % 1006,1 hPa 0,0 l/m 0 min 0 min 0 W/m 9,7 km/h (2 Bft) 97,87 %
09.02.2019 20:14 8,0 C 5,6 C 5,0 C 84 % 1006,1 hPa 0,0 l/m 0 min 0 min 0 W/m 9,7 km/h (2 Bft) 97,62 %
09.02.2019 20:16 7,9 C 6,1 C 5,0 C 84 % 1006,1 hPa 0,0 l/m 0 min 0 min 0 W/m 32,2 km/h (5 Bft) 97,96 %
09.02.2019 20:18 7,9 C 6,1 C 5,0 C 84 % 1006,0 hPa 0,0 l/m 0 min 0 min 0 W/m 16,1 km/h (3 Bft) 95,92 %
09.02.2019 20:20 7,8 C 6,1 C 5,0 C 85 % 1006,1 hPa 0,0 l/m 0 min 0 min 0 W/m 6,4 km/h (2 Bft) 97,87 %
09.02.2019 20:22 7,8 C 6,1 C 5,0 C 85 % 1006,1 hPa 0,0 l/m 0 min 0 min 0 W/m 16,1 km/h (3 Bft) 97,87 %
09.02.2019 20:24 7,8 C 6,1 C 5,6 C 85 % 1006,1 hPa 0,0 l/m 0 min 0 min 0 W/m 19,3 km/h (3 Bft) 97,87 %
09.02.2019 20:26 7,7 C 6,1 C 5,0 C 85 % 1006,1 hPa 0,0 l/m 0 min 0 min 0 W/m 9,7 km/h (2 Bft) 95,24 %
09.02.2019 20:28 7,7 C 6,1 C 5,0 C 85 % 1006,0 hPa 0,0 l/m 0 min 0 min 0 W/m 19,3 km/h (3 Bft) 97,96 %
09.02.2019 20:30 7,7 C 6,1 C 5,0 C 85 % 1006,0 hPa 0,0 l/m 0 min 0 min 0 W/m 9,7 km/h (2 Bft) 97,96 %
09.02.2019 20:32 7,6 C 6,1 C 5,0 C 85 % 1006,0 hPa 0,0 l/m 0 min 0 min 0 W/m 22,5 km/h (4 Bft) 97,87 %
09.02.2019 20:34 7,6 C 6,7 C 5,6 C 85 % 1006,0 hPa 0,0 l/m 0 min 0 min 0 W/m 22,5 km/h (4 Bft) 95,74 %
09.02.2019 20:36 7,6 C 6,7 C 5,6 C 85 % 1006,0 hPa 0,0 l/m 0 min 0 min 0 W/m 9,7 km/h (2 Bft) 94,34 %
09.02.2019 20:38 7,6 C 6,7 C 5,6 C 85 % 1006,0 hPa 0,0 l/m 0 min 0 min 0 W/m 9,7 km/h (2 Bft) 97,30 %
09.02.2019 20:40 7,6 C 6,7 C 5,6 C 85 % 1006,0 hPa 0,0 l/m 0 min 0 min 0 W/m 19,3 km/h (3 Bft) 97,87 %
09.02.2019 20:42 7,6 C 6,7 C 5,6 C 85 % 1005,9 hPa 0,0 l/m 0 min 0 min 0 W/m 16,1 km/h (3 Bft) 97,96 %
09.02.2019 20:44 7,6 C 6,7 C 5,6 C 85 % 1005,8 hPa 0,0 l/m 0 min 0 min 0 W/m 19,3 km/h (3 Bft) 97,92 %
09.02.2019 20:46 7,6 C 6,7 C 5,6 C 85 % 1005,8 hPa 0,0 l/m 0 min 0 min 0 W/m 9,7 km/h (2 Bft) 97,87 %
09.02.2019 20:48 7,6 C 6,7 C 5,6 C 85 % 1005,9 hPa 0,0 l/m 0 min 0 min 0 W/m 19,3 km/h (3 Bft) 97,87 %
09.02.2019 20:50 7,6 C 6,7 C 6,1 C 85 % 1005,8 hPa 0,0 l/m 0 min 0 min 0 W/m 19,3 km/h (3 Bft) 97,56 %
09.02.2019 20:52 7,6 C 6,7 C 6,1 C 85 % 1005,8 hPa 0,0 l/m 0 min 0 min 0 W/m 12,9 km/h (3 Bft) 95,92 %
09.02.2019 20:54 7,6 C 6,7 C 6,1 C 85 % 1005,9 hPa 0,0 l/m 0 min 0 min 0 W/m 9,7 km/h (2 Bft) 95,92 %
09.02.2019 20:56 7,6 C 6,7 C 6,1 C 85 % 1005,8 hPa 0,0 l/m 0 min 0 min 0 W/m 6,4 km/h (2 Bft) 91,67 %
09.02.2019 20:58 7,7 C 6,7 C 6,1 C 85 % 1005,9 hPa 0,0 l/m 0 min 0 min 0 W/m 19,3 km/h (3 Bft) 95,74 %
09.02.2019 21:00 7,7 C 6,7 C 6,1 C 85 % 1005,9 hPa 0,0 l/m 0 min 0 min 0 W/m 12,9 km/h (3 Bft) 95,74 %
09.02.2019 21:02 7,7 C 6,7 C 6,1 C 84 % 1006,0 hPa 0,0 l/m 0 min 0 min 0 W/m 12,9 km/h (3 Bft) 100,00 %
09.02.2019 21:04 7,7 C 6,7 C 6,1 C 84 % 1005,8 hPa 0,0 l/m 0 min 0 min 0 W/m 9,7 km/h (2 Bft) 100,00 %
09.02.2019 21:06 7,7 C 7,2 C 6,1 C 84 % 1005,9 hPa 0,0 l/m 0 min 0 min 0 W/m 25,7 km/h (4 Bft) 98,36 %
09.02.2019 21:08 7,7 C 7,2 C 6,1 C 84 % 1005,8 hPa 0,0 l/m 0 min 0 min 0 W/m 25,7 km/h (4 Bft) 97,14 %
09.02.2019 21:10 7,7 C 7,2 C 6,1 C 84 % 1005,8 hPa 0,0 l/m 0 min 0 min 0 W/m 29,0 km/h (5 Bft) 95,74 %
09.02.2019 21:12 7,8 C 7,2 C 6,1 C 84 % 1005,7 hPa 0,0 l/m 0 min 0 min 0 W/m 19,3 km/h (3 Bft) 97,96 %
09.02.2019 21:14 7,8 C 7,2 C 6,1 C 84 % 1005,6 hPa 0,0 l/m 0 min 0 min 0 W/m 22,5 km/h (4 Bft) 97,87 %
09.02.2019 21:16 7,8 C 7,2 C 6,1 C 84 % 1005,6 hPa 0,0 l/m 0 min 0 min 0 W/m 25,7 km/h (4 Bft) 97,87 %
09.02.2019 21:18 7,8 C 7,2 C 6,1 C 84 % 1005,7 hPa 0,0 l/m 0 min 0 min 0 W/m 25,7 km/h (4 Bft) 97,87 %
09.02.2019 21:20 7,8 C 7,2 C 6,1 C 84 % 1005,6 hPa 0,0 l/m 0 min 0 min 0 W/m 19,3 km/h (3 Bft) 97,62 %
09.02.2019 21:22 7,8 C 7,2 C 6,1 C 84 % 1005,6 hPa 0,0 l/m 0 min 0 min 0 W/m 16,1 km/h (3 Bft) 97,96 %
09.02.2019 21:24 7,8 C 7,2 C 6,1 C 84 % 1005,6 hPa 0,0 l/m 0 min 0 min 0 W/m 41,8 km/h (6 Bft) 95,92 %
09.02.2019 21:26 7,8 C 7,2 C 6,1 C 84 % 1005,6 hPa 0,0 l/m 0 min 0 min 0 W/m 19,3 km/h (3 Bft) 93,62 %
09.02.2019 21:28 7,8 C 7,2 C 6,1 C 84 % 1005,6 hPa 0,0 l/m 0 min 0 min 0 W/m 19,3 km/h (3 Bft) 95,74 %
09.02.2019 21:30 7,8 C 7,2 C 6,1 C 83 % 1005,6 hPa 0,0 l/m 0 min 0 min 0 W/m 22,5 km/h (4 Bft) 95,74 %
09.02.2019 21:32 7,8 C 7,2 C 6,7 C 83 % 1005,6 hPa 0,0 l/m 0 min 0 min 0 W/m 16,1 km/h (3 Bft) 95,35 %
09.02.2019 21:34 7,8 C 7,2 C 6,1 C 83 % 1005,6 hPa 0,0 l/m 0 min 0 min 0 W/m 12,9 km/h (3 Bft) 91,49 %
09.02.2019 21:36 7,8 C 7,2 C 6,1 C 83 % 1005,7 hPa 0,0 l/m 0 min 0 min 0 W/m 12,9 km/h (3 Bft) 96,72 %
09.02.2019 21:38 7,8 C 7,2 C 6,1 C 83 % 1005,7 hPa 0,0 l/m 0 min 0 min 0 W/m 12,9 km/h (3 Bft) 94,29 %
09.02.2019 21:40 7,8 C 7,2 C 6,7 C 83 % 1005,7 hPa 0,0 l/m 0 min 0 min 0 W/m 22,5 km/h (4 Bft) 95,83 %
09.02.2019 21:42 7,9 C 7,2 C 6,7 C 83 % 1005,6 hPa 0,0 l/m 0 min 0 min 0 W/m 25,7 km/h (4 Bft) 95,74 %
09.02.2019 21:44 7,9 C 7,2 C 6,7 C 83 % 1005,6 hPa 0,0 l/m 0 min 0 min 0 W/m 16,1 km/h (3 Bft) 93,62 %
09.02.2019 21:46 7,9 C 7,2 C 6,7 C 83 % 1005,6 hPa 0,0 l/m 0 min 0 min 0 W/m 16,1 km/h (3 Bft) 92,68 %
09.02.2019 21:48 7,9 C 7,2 C 6,7 C 83 % 1005,6 hPa 0,0 l/m 0 min 0 min 0 W/m 16,1 km/h (3 Bft) 95,92 %
09.02.2019 21:50 7,9 C 7,2 C 6,7 C 83 % 1005,6 hPa 0,0 l/m 0 min 0 min 0 W/m 19,3 km/h (3 Bft) 97,96 %
09.02.2019 21:52 7,9 C 7,2 C 6,7 C 83 % 1005,7 hPa 0,0 l/m 0 min 0 min 0 W/m 19,3 km/h (3 Bft) 95,83 %
09.02.2019 21:54 7,9 C 7,2 C 6,7 C 83 % 1005,7 hPa 0,0 l/m 0 min 0 min 0 W/m 9,7 km/h (2 Bft) 97,87 %
09.02.2019 21:56 7,9 C 7,2 C 6,7 C 83 % 1005,7 hPa 0,0 l/m 0 min 0 min 0 W/m 19,3 km/h (3 Bft) 97,87 %
09.02.2019 21:58 7,9 C 7,2 C 6,7 C 83 % 1005,7 hPa 0,0 l/m 0 min 0 min 0 W/m 32,2 km/h (5 Bft) 100,00 %
09.02.2019 22:00 7,9 C 7,8 C 6,7 C 83 % 1005,7 hPa 0,0 l/m 0 min 0 min 0 W/m 22,5 km/h (4 Bft) 97,87 %
09.02.2019 22:02 7,9 C 7,2 C 6,7 C 83 % 1005,7 hPa 0,0 l/m 0 min 0 min 0 W/m 9,7 km/h (2 Bft) 94,00 %
09.02.2019 22:04 7,9 C 7,2 C 6,7 C 83 % 1005,7 hPa 0,0 l/m 0 min 0 min 0 W/m 9,7 km/h (2 Bft) 97,87 %
09.02.2019 22:06 7,9 C 7,2 C 6,7 C 83 % 1005,7 hPa 0,0 l/m 0 min 0 min 0 W/m 19,3 km/h (3 Bft) 96,30 %
09.02.2019 22:08 8,0 C 7,2 C 6,7 C 83 % 1005,7 hPa 0,0 l/m 0 min 0 min 0 W/m 16,1 km/h (3 Bft) 94,29 %
09.02.2019 22:10 8,0 C 7,8 C 6,7 C 83 % 1005,7 hPa 0,0 l/m 0 min 0 min 0 W/m 19,3 km/h (3 Bft) 95,74 %
09.02.2019 22:12 8,0 C 7,8 C 6,7 C 83 % 1005,8 hPa 0,0 l/m 0 min 0 min 0 W/m 12,9 km/h (3 Bft) 97,87 %
09.02.2019 22:14 8,0 C 7,8 C 7,2 C 83 % 1005,7 hPa 0,0 l/m 0 min 0 min 0 W/m 19,3 km/h (3 Bft) 97,87 %
09.02.2019 22:16 8,0 C 7,8 C 6,7 C 82 % 1005,6 hPa 0,0 l/m 0 min 0 min 0 W/m 9,7 km/h (2 Bft) 97,87 %
09.02.2019 22:18 8,0 C 7,8 C 6,7 C 82 % 1005,7 hPa 0,0 l/m 0 min 0 min 0 W/m 12,9 km/h (3 Bft) 97,83 %
09.02.2019 22:20 8,1 C 7,8 C 7,2 C 82 % 1005,7 hPa 0,0 l/m 0 min 0 min 0 W/m 22,5 km/h (4 Bft) 97,87 %
09.02.2019 22:22 8,1 C 7,8 C 7,2 C 82 % 1005,8 hPa 0,0 l/m 0 min 0 min 0 W/m 16,1 km/h (3 Bft) 97,87 %
09.02.2019 22:24 8,1 C 7,8 C 7,2 C 82 % 1005,7 hPa 0,0 l/m 0 min 0 min 0 W/m 22,5 km/h (4 Bft) 95,74 %
09.02.2019 22:26 8,1 C 7,8 C 7,2 C 82 % 1005,8 hPa 0,0 l/m 0 min 0 min 0 W/m 19,3 km/h (3 Bft) 97,87 %
09.02.2019 22:28 8,1 C 7,8 C 7,2 C 82 % 1005,8 hPa 0,0 l/m 0 min 0 min 0 W/m 9,7 km/h (2 Bft) 97,87 %
09.02.2019 22:30 8,1 C 7,8 C 7,2 C 82 % 1005,7 hPa 0,0 l/m 0 min 0 min 0 W/m 22,5 km/h (4 Bft) 100,00 %
09.02.2019 22:32 8,1 C 7,8 C 7,2 C 82 % 1005,7 hPa 0,0 l/m 0 min 0 min 0 W/m 16,1 km/h (3 Bft) 100,00 %
09.02.2019 22:34 8,2 C 7,8 C 7,2 C 82 % 1005,8 hPa 0,0 l/m 0 min 0 min 0 W/m 19,3 km/h (3 Bft) 100,00 %
09.02.2019 22:36 8,2 C 7,8 C 7,2 C 82 % 1005,7 hPa 0,0 l/m 0 min 0 min 0 W/m 22,5 km/h (4 Bft) 100,00 %
09.02.2019 22:38 8,2 C 7,8 C 7,2 C 82 % 1005,8 hPa 0,0 l/m 0 min 0 min 0 W/m 32,2 km/h (5 Bft) 97,14 %
09.02.2019 22:40 8,2 C 7,8 C 7,2 C 81 % 1005,8 hPa 0,0 l/m 0 min 0 min 0 W/m 35,4 km/h (5 Bft) 97,87 %
09.02.2019 22:42 8,2 C 7,8 C 7,2 C 81 % 1005,8 hPa 0,0 l/m 0 min 0 min 0 W/m 29,0 km/h (5 Bft) 97,83 %
09.02.2019 22:44 8,3 C 7,8 C 7,2 C 81 % 1005,8 hPa 0,0 l/m 0 min 0 min 0 W/m 22,5 km/h (4 Bft) 100,00 %
09.02.2019 22:46 8,3 C 7,8 C 7,2 C 81 % 1005,8 hPa 0,0 l/m 0 min 0 min 0 W/m 16,1 km/h (3 Bft) 97,87 %
09.02.2019 22:48 8,3 C 7,8 C 7,2 C 81 % 1005,7 hPa 0,0 l/m 0 min 0 min 0 W/m 19,3 km/h (3 Bft) 97,87 %
09.02.2019 22:50 8,3 C 7,8 C 7,2 C 81 % 1005,7 hPa 0,0 l/m 0 min 0 min 0 W/m 19,3 km/h (3 Bft) 100,00 %
09.02.2019 22:52 8,3 C 7,8 C 7,2 C 81 % 1005,6 hPa 0,0 l/m 0 min 0 min 0 W/m 25,7 km/h (4 Bft) 97,87 %
09.02.2019 22:54 8,3 C 7,8 C 7,2 C 81 % 1005,5 hPa 0,0 l/m 0 min 0 min 0 W/m 9,7 km/h (2 Bft) 100,00 %
09.02.2019 22:56 8,3 C 7,8 C 7,2 C 81 % 1005,6 hPa 0,0 l/m 0 min 0 min 0 W/m 25,7 km/h (4 Bft) 100,00 %
09.02.2019 22:58 8,3 C 7,8 C 7,2 C 81 % 1005,7 hPa 0,0 l/m 0 min 0 min 0 W/m 35,4 km/h (5 Bft) 97,87 %
09.02.2019 23:00 8,3 C 7,8 C 7,2 C 81 % 1005,5 hPa 0,0 l/m 0 min 0 min 0 W/m 16,1 km/h (3 Bft) 97,87 %
09.02.2019 23:02 8,3 C 7,8 C 7,2 C 81 % 1005,6 hPa 0,0 l/m 0 min 0 min 0 W/m 22,5 km/h (4 Bft) 97,87 %
09.02.2019 23:04 8,3 C 7,8 C 7,2 C 81 % 1005,5 hPa 0,0 l/m 0 min 0 min 0 W/m 19,3 km/h (3 Bft) 97,83 %
09.02.2019 23:06 8,3 C 7,8 C 7,2 C 81 % 1005,5 hPa 0,0 l/m 0 min 0 min 0 W/m 19,3 km/h (3 Bft) 98,31 %
09.02.2019 23:08 8,4 C 7,8 C 7,2 C 81 % 1005,5 hPa 0,0 l/m 0 min 0 min 0 W/m 25,7 km/h (4 Bft) 97,14 %
09.02.2019 23:10 8,4 C 7,8 C 7,2 C 81 % 1005,4 hPa 0,0 l/m 0 min 0 min 0 W/m 22,5 km/h (4 Bft) 97,87 %
09.02.2019 23:12 8,4 C 7,8 C 7,2 C 81 % 1005,5 hPa 0,0 l/m 0 min 0 min 0 W/m 16,1 km/h (3 Bft) 95,74 %
09.02.2019 23:14 8,4 C 7,8 C 7,2 C 81 % 1005,5 hPa 0,0 l/m 0 min 0 min 0 W/m 22,5 km/h (4 Bft) 97,87 %
09.02.2019 23:16 8,4 C 7,8 C 7,2 C 81 % 1005,4 hPa 0,0 l/m 0 min 0 min 0 W/m 25,7 km/h (4 Bft) 97,83 %
09.02.2019 23:18 8,4 C 7,8 C 7,2 C 81 % 1005,5 hPa 0,0 l/m 0 min 0 min 0 W/m 25,7 km/h (4 Bft) 97,87 %
09.02.2019 23:20 8,4 C 7,8 C 7,2 C 81 % 1005,4 hPa 0,0 l/m 0 min 0 min 0 W/m 19,3 km/h (3 Bft) 97,87 %
09.02.2019 23:22 8,4 C 7,8 C 7,2 C 81 % 1005,4 hPa 0,0 l/m 0 min 0 min 0 W/m 32,2 km/h (5 Bft) 97,87 %
09.02.2019 23:24 8,4 C 7,8 C 7,2 C 82 % 1005,4 hPa 0,0 l/m 0 min 0 min 0 W/m 32,2 km/h (5 Bft) 97,87 %
09.02.2019 23:26 8,4 C 7,8 C 7,2 C 82 % 1005,5 hPa 0,0 l/m 0 min 0 min 0 W/m 19,3 km/h (3 Bft) 95,74 %
09.02.2019 23:28 8,5 C 7,8 C 7,2 C 82 % 1005,6 hPa 0,0 l/m 0 min 0 min 0 W/m 16,1 km/h (3 Bft) 95,65 %
09.02.2019 23:30 8,5 C 7,8 C 7,2 C 82 % 1005,5 hPa 0,0 l/m 0 min 0 min 0 W/m 25,7 km/h (4 Bft) 93,62 %
09.02.2019 23:32 8,5 C 8,3 C 7,2 C 82 % 1005,4 hPa 0,0 l/m 0 min 0 min 0 W/m 29,0 km/h (5 Bft) 97,87 %
09.02.2019 23:34 8,6 C 8,3 C 7,2 C 82 % 1005,3 hPa 0,0 l/m 0 min 0 min 0 W/m 19,3 km/h (3 Bft) 95,74 %
09.02.2019 23:36 8,6 C 7,8 C 7,2 C 82 % 1005,4 hPa 0,0 l/m 0 min 0 min 0 W/m 12,9 km/h (3 Bft) 94,92 %
09.02.2019 23:38 8,6 C 7,8 C 7,2 C 82 % 1005,4 hPa 0,0 l/m 0 min 0 min 0 W/m 29,0 km/h (5 Bft) 97,14 %
09.02.2019 23:40 8,6 C 8,3 C 7,2 C 82 % 1005,5 hPa 0,0 l/m 0 min 0 min 0 W/m 25,7 km/h (4 Bft) 97,83 %
09.02.2019 23:42 8,6 C 8,3 C 7,2 C 82 % 1005,4 hPa 0,0 l/m 0 min 0 min 0 W/m 32,2 km/h (5 Bft) 97,87 %
09.02.2019 23:44 8,6 C 8,3 C 7,2 C 82 % 1005,3 hPa 0,0 l/m 0 min 0 min 0 W/m 22,5 km/h (4 Bft) 97,87 %
09.02.2019 23:46 8,6 C 8,3 C 7,2 C 82 % 1005,3 hPa 0,0 l/m 0 min 0 min 0 W/m 19,3 km/h (3 Bft) 97,87 %
09.02.2019 23:48 8,6 C 8,3 C 7,2 C 82 % 1005,3 hPa 0,0 l/m 0 min 0 min 0 W/m 29,0 km/h (5 Bft) 97,87 %
09.02.2019 23:50 8,6 C 7,8 C 7,2 C 82 % 1005,2 hPa 0,0 l/m 0 min 0 min 0 W/m 16,1 km/h (3 Bft) 95,74 %
09.02.2019 23:52 8,6 C 7,8 C 7,2 C 82 % 1005,1 hPa 0,0 l/m 0 min 0 min 0 W/m 22,5 km/h (4 Bft) 97,83 %
09.02.2019 23:54 8,6 C 7,8 C 7,2 C 82 % 1005,0 hPa 0,0 l/m 0 min 0 min 0 W/m 22,5 km/h (4 Bft) 97,87 %
09.02.2019 23:56 8,6 C 7,8 C 7,2 C 82 % 1005,1 hPa 0,0 l/m 0 min 0 min 0 W/m 22,5 km/h (4 Bft) 97,87 %
09.02.2019 23:58 8,6 C 7,8 C 7,2 C 82 % 1005,0 hPa 0,0 l/m 0 min 0 min 0 W/m 16,1 km/h (3 Bft) 97,87 %
_ Min-Zeit 08:32 08:16 08:18 14:42 03:38 - - - - 17:44 01:42
Minimum _ 6,3 C 4,4 C 3,9 C 71 % 997,8 hPa - - - - 3,2 km/h (1 Bft) 88,57 %
_ Max-Zeit 13:10 13:08 12:52 01:34 19:58 07:32 09:30 18:08 13:08 12:18 00:00
Maximum _ 10,3 C 13,3 C 11,1 C 92 % 1006,3 hPa 0,4 l/m 2 min 4 min 487 W/m 67,6 km/h
W (8 Bft)
100,00 %
Durchschnitt _ 8,2 C 7,5 C 6,6 C 84 % 1002,5 hPa #5,2 l/m #2:38 h #8:00 h 125 W/m 26,0 km/h (4 Bft) 97,38 %
© 2019 W. Hausmann